| time (UTC) | temp F | wind direction | speed MPH | gust MPH | rain 1hr in | rain 24hr in | rain mn in | humidity % | barometer mb |
| 20260905172859 | 89 | 165 | 4.0 | 6.0 | 0.00 | 0.42 | 0.14 | 59 | 1013.4 |
| 20260905172800 | 89 | 167 | 1.0 | 6.0 | 0.00 | 0.42 | 0.14 | 58 | 1013.4 |
| 20260905172701 | 89 | 186 | 1.0 | 6.0 | 0.00 | 0.42 | 0.14 | 58 | 1013.4 |
| 20260905172559 | 89 | 214 | 0.0 | 5.0 | 0.00 | 0.42 | 0.14 | 57 | 1013.5 |
| 20260905172459 | 89 | 270 | 0.0 | 5.0 | 0.00 | 0.42 | 0.14 | 57 | 1013.4 |
| 20260905172359 | 89 | 338 | 0.0 | 5.0 | 0.00 | 0.42 | 0.14 | 56 | 1013.4 |
| 20260905172300 | 89 | 198 | 1.0 | 5.0 | 0.00 | 0.42 | 0.14 | 57 | 1013.5 |
| 20260905172201 | 89 | 255 | 0.0 | 5.0 | 0.00 | 0.42 | 0.14 | 53 | 1013.5 |
| 20260905172059 | 89 | 82 | 1.0 | 5.0 | 0.00 | 0.42 | 0.14 | 54 | 1013.6 |
| 20260905172000 | 89 | 181 | 1.0 | 5.0 | 0.00 | 0.42 | 0.14 | 53 | 1013.6 |
| 20260905171859 | 89 | 182 | 5.0 | 6.0 | 0.00 | 0.42 | 0.14 | 54 | 1013.6 |
| 20260905171759 | 89 | 154 | 0.0 | 3.0 | 0.00 | 0.42 | 0.14 | 55 | 1013.6 |
| 20260905171659 | 89 | 253 | 1.0 | 3.0 | 0.00 | 0.42 | 0.14 | 55 | 1013.7 |
| 20260905171602 | 89 | 165 | 0.0 | 3.0 | 0.00 | 0.42 | 0.14 | 54 | 1013.6 |
| 20260905171459 | 89 | 173 | 2.0 | 2.0 | 0.00 | 0.42 | 0.14 | 54 | 1013.6 |
| 20260905171100 | 88 | 336 | 0.0 | 2.0 | 0.00 | 0.42 | 0.14 | 56 | 1013.7 |
| 20260905171002 | 88 | 347 | 0.0 | 4.0 | 0.00 | 0.42 | 0.14 | 56 | 1013.8 |
| 20260905170759 | 88 | 162 | 0.0 | 10.0 | 0.00 | 0.42 | 0.14 | 57 | 1013.7 |
| 20260905170559 | 88 | 314 | 0.0 | 10.0 | 0.00 | 0.42 | 0.14 | 56 | 1013.8 |
| 20260905170458 | 88 | 330 | 0.0 | 10.0 | 0.00 | 0.42 | 0.14 | 56 | 1013.8 |
| 20260905170359 | 88 | 317 | 0.0 | 10.0 | 0.00 | 0.42 | 0.14 | 55 | 1013.8 |
| 20260905170101 | 88 | 281 | 4.0 | 10.0 | 0.00 | 0.42 | 0.14 | 55 | 1013.8 |
| 20260905165959 | 88 | 250 | 2.0 | 10.0 | 0.00 | 0.42 | 0.14 | 55 | 1013.8 |
| 20260905165903 | 88 | 287 | 2.0 | 4.0 | 0.00 | 0.42 | 0.14 | 54 | 1013.8 |
| 20260905165758 | 88 | 289 | 1.0 | 4.0 | 0.00 | 0.42 | 0.14 | 55 | 1013.8 |
| 20260905165500 | 88 | 331 | 1.0 | 4.0 | 0.00 | 0.42 | 0.14 | 55 | 1013.8 |
| 20260905165400 | 88 | 154 | 1.0 | 4.0 | 0.00 | 0.42 | 0.14 | 55 | 1013.8 |
| 20260905165306 | 88 | 311 | 2.0 | 4.0 | 0.00 | 0.42 | 0.14 | 54 | 1014.0 |
| 20260905165159 | 88 | 190 | 2.0 | 4.0 | 0.00 | 0.42 | 0.14 | 55 | 1013.9 |
| 20260905165059 | 88 | 298 | 1.0 | 3.0 | 0.00 | 0.42 | 0.14 | 56 | 1013.8 |
| 20260905164959 | 88 | 250 | 1.0 | 4.0 | 0.00 | 0.42 | 0.14 | 57 | 1013.9 |
| 20260905164859 | 87 | 294 | 1.0 | 4.0 | 0.00 | 0.42 | 0.14 | 56 | 1013.8 |
| 20260905164800 | 87 | 348 | 0.0 | 6.0 | 0.00 | 0.42 | 0.14 | 56 | 1013.9 |
| 20260905164701 | 87 | 348 | 0.0 | 6.0 | 0.00 | 0.42 | 0.14 | 55 | 1013.9 |
| 20260905164602 | 87 | 148 | 0.0 | 6.0 | 0.00 | 0.42 | 0.14 | 57 | 1014.0 |
| 20260905164500 | 87 | 217 | 0.0 | 6.0 | 0.00 | 0.42 | 0.14 | 56 | 1014.0 |
| 20260905164359 | 87 | 168 | 0.0 | 6.0 | 0.00 | 0.42 | 0.14 | 56 | 1014.0 |
| 20260905164300 | 87 | 200 | 0.0 | 6.0 | 0.00 | 0.42 | 0.14 | 55 | 1014.1 |
| 20260905164159 | 87 | 315 | 0.0 | 6.0 | 0.00 | 0.42 | 0.14 | 55 | 1014.1 |
| 20260905164103 | 87 | 300 | 3.0 | 6.0 | 0.00 | 0.42 | 0.14 | 56 | 1014.2 |
| 20260905163900 | 87 | 158 | 2.0 | 6.0 | 0.00 | 0.42 | 0.14 | 54 | 1014.1 |
| 20260905163759 | 87 | 167 | 1.0 | 5.0 | 0.00 | 0.42 | 0.14 | 55 | 1014.3 |
| 20260905163659 | 87 | 261 | 2.0 | 5.0 | 0.00 | 0.42 | 0.14 | 55 | 1014.3 |
| 20260905163559 | 87 | 328 | 1.0 | 5.0 | 0.00 | 0.42 | 0.14 | 56 | 1014.3 |
| 20260905163500 | 87 | 313 | 2.0 | 6.0 | 0.00 | 0.42 | 0.14 | 55 | 1014.3 |
| 20260905163400 | 87 | 284 | 3.0 | 6.0 | 0.00 | 0.42 | 0.14 | 56 | 1014.3 |
| 20260905163259 | 87 | 182 | 4.0 | 6.0 | 0.00 | 0.42 | 0.14 | 54 | 1014.2 |
| 20260905163201 | 87 | 174 | 3.0 | 6.0 | 0.00 | 0.42 | 0.14 | 54 | 1014.3 |
| 20260905163059 | 87 | 12 | 1.0 | 6.0 | 0.00 | 0.42 | 0.14 | 55 | 1014.3 |
| 20260905163000 | 87 | 296 | 1.0 | 6.0 | 0.00 | 0.42 | 0.14 | 55 | 1014.3 |
| 20260905162900 | 87 | 286 | 1.0 | 6.0 | 0.00 | 0.42 | 0.14 | 56 | 1014.3 |
| 20260905162801 | 86 | 275 | 1.0 | 6.0 | 0.00 | 0.42 | 0.14 | 54 | 1014.3 |
| 20260905162659 | 86 | 186 | 5.0 | 6.0 | 0.00 | 0.42 | 0.14 | 56 | 1014.2 |
| 20260905162601 | 86 | 150 | 1.0 | 6.0 | 0.00 | 0.42 | 0.14 | 54 | 1014.2 |
| 20260905162501 | 86 | 313 | 1.0 | 4.0 | 0.00 | 0.42 | 0.14 | 57 | 1014.4 |
| 20260905162359 | 86 | 184 | 0.0 | 4.0 | 0.00 | 0.42 | 0.14 | 55 | 1014.3 |
| 20260905162259 | 86 | 244 | 0.0 | 4.0 | 0.00 | 0.42 | 0.14 | 55 | 1014.3 |
| 20260905162000 | 86 | 188 | 1.0 | 4.0 | 0.00 | 0.42 | 0.14 | 56 | 1014.2 |
| 20260905161901 | 86 | 182 | 1.0 | 6.0 | 0.00 | 0.42 | 0.14 | 57 | 1014.2 |
| 20260905161801 | 86 | 180 | 0.0 | 6.0 | 0.00 | 0.42 | 0.14 | 58 | 1014.2 |
| 20260905161658 | 86 | 360 | 0.0 | 6.0 | 0.00 | 0.42 | 0.14 | 56 | 1014.2 |
| 20260905161600 | 86 | 350 | 0.0 | 6.0 | 0.00 | 0.42 | 0.14 | 58 | 1014.2 |
| 20260905161400 | 85 | 248 | 1.0 | 6.0 | 0.00 | 0.42 | 0.14 | 56 | 1014.2 |
| 20260905161201 | 85 | 306 | 2.0 | 6.0 | 0.00 | 0.42 | 0.14 | 56 | 1014.0 |
| 20260905161100 | 85 | 183 | 2.0 | 6.0 | 0.00 | 0.42 | 0.14 | 57 | 1014.1 |
| 20260905160959 | 85 | 226 | 0.0 | 3.0 | 0.00 | 0.42 | 0.14 | 58 | 1014.1 |
| 20260905160859 | 85 | 219 | 0.0 | 4.0 | 0.00 | 0.42 | 0.14 | 58 | 1014.0 |
| 20260905160759 | 85 | 195 | 0.0 | 5.0 | 0.00 | 0.42 | 0.14 | 57 | 1014.1 |
| 20260905160601 | 85 | 300 | 0.0 | 5.0 | 0.00 | 0.42 | 0.14 | 57 | 1014.1 |
| 20260905160500 | 85 | 210 | 0.0 | 5.0 | 0.00 | 0.42 | 0.14 | 57 | 1014.1 |
| 20260905160400 | 85 | 304 | 0.0 | 5.0 | 0.00 | 0.42 | 0.14 | 58 | 1014.2 |
| 20260905160259 | 84 | 175 | 0.0 | 5.0 | 0.00 | 0.42 | 0.14 | 57 | 1014.1 |
| 20260905160159 | 84 | 328 | 0.0 | 5.0 | 0.00 | 0.42 | 0.14 | 58 | 1014.0 |
| 20260905160059 | 84 | 294 | 1.0 | 6.0 | 0.00 | 0.42 | 0.14 | 57 | 1014.1 |
| 20260905160001 | 84 | 246 | 1.0 | 6.0 | 0.00 | 0.42 | 0.14 | 57 | 1014.1 |
| 20260905155800 | 84 | 180 | 2.0 | 6.0 | 0.00 | 0.42 | 0.14 | 58 | 1014.2 |
| 20260905155559 | 84 | 188 | 2.0 | 6.0 | 0.00 | 0.42 | 0.14 | 58 | 1014.2 |
| 20260905155400 | 84 | 257 | 3.0 | 6.0 | 0.00 | 0.42 | 0.14 | 58 | 1014.2 |
| 20260905155301 | 84 | 209 | 0.0 | 6.0 | 0.00 | 0.42 | 0.14 | 59 | 1014.2 |
| 20260905155159 | 84 | 201 | 2.0 | 6.0 | 0.00 | 0.42 | 0.14 | 60 | 1014.2 |
| 20260905155100 | 84 | 196 | 1.0 | 5.0 | 0.00 | 0.42 | 0.14 | 59 | 1014.2 |
| 20260905154759 | 84 | 220 | 1.0 | 6.0 | 0.00 | 0.42 | 0.14 | 59 | 1014.3 |
| 20260905154659 | 84 | 217 | 2.0 | 6.0 | 0.00 | 0.42 | 0.14 | 59 | 1014.2 |
| 20260905154601 | 84 | 307 | 3.0 | 6.0 | 0.00 | 0.42 | 0.14 | 60 | 1014.2 |
| 20260905154359 | 84 | 213 | 4.0 | 6.0 | 0.00 | 0.42 | 0.14 | 58 | 1014.2 |
| 20260905154300 | 84 | 202 | 0.0 | 6.0 | 0.00 | 0.42 | 0.14 | 59 | 1014.2 |
| 20260905154158 | 84 | 171 | 5.0 | 6.0 | 0.00 | 0.42 | 0.14 | 60 | 1014.2 |
| 20260905154102 | 83 | 326 | 0.0 | 3.0 | 0.00 | 0.42 | 0.14 | 61 | 1014.1 |
| 20260905153900 | 83 | 175 | 1.0 | 4.0 | 0.00 | 0.42 | 0.14 | 60 | 1014.2 |
| 20260905153802 | 83 | 185 | 0.0 | 6.0 | 0.00 | 0.42 | 0.14 | 60 | 1014.1 |
| 20260905153659 | 83 | 187 | 1.0 | 6.0 | 0.00 | 0.42 | 0.14 | 61 | 1014.1 |
| 20260905153559 | 83 | 159 | 1.0 | 6.0 | 0.00 | 0.42 | 0.14 | 60 | 1014.1 |
| 20260905153500 | 83 | 153 | 1.0 | 6.0 | 0.00 | 0.42 | 0.14 | 59 | 1014.1 |
| 20260905153359 | 83 | 144 | 1.0 | 6.0 | 0.00 | 0.42 | 0.14 | 60 | 1014.1 |
| 20260905153300 | 83 | 177 | 0.0 | 6.0 | 0.00 | 0.42 | 0.14 | 60 | 1014.1 |
| 20260905153159 | 83 | 168 | 0.0 | 6.0 | 0.00 | 0.42 | 0.14 | 59 | 1014.1 |
| 20260905153100 | 83 | 126 | 0.0 | 6.0 | 0.00 | 0.42 | 0.14 | 61 | 1014.0 |
| 20260905153000 | 83 | 210 | 0.0 | 6.0 | 0.00 | 0.42 | 0.14 | 59 | 1014.0 |
| 20260905152901 | 83 | 175 | 6.0 | 6.0 | 0.00 | 0.42 | 0.14 | 60 | 1014.1 |
| 20260905152800 | 83 | 165 | 0.0 | 2.0 | 0.00 | 0.42 | 0.14 | 62 | 1014.1 |
| 20260905152659 | 83 | 257 | 0.0 | 2.0 | 0.00 | 0.42 | 0.14 | 61 | 1014.1 |
| 20260905152600 | 83 | 248 | 1.0 | 2.0 | 0.00 | 0.42 | 0.14 | 61 | 1014.2 |
| 20260905152458 | 83 | 133 | 0.0 | 2.0 | 0.00 | 0.42 | 0.14 | 60 | 1014.1 |
| 20260905152400 | 83 | 155 | 0.0 | 2.0 | 0.00 | 0.42 | 0.14 | 60 | 1014.2 |
| 20260905152200 | 83 | 267 | 0.0 | 2.0 | 0.00 | 0.42 | 0.14 | 61 | 1014.3 |
| 20260905152100 | 82 | 115 | 0.0 | 2.0 | 0.00 | 0.42 | 0.14 | 60 | 1014.3 |
| 20260905152002 | 82 | 323 | 2.0 | 2.0 | 0.00 | 0.42 | 0.14 | 61 | 1014.3 |
| 20260905151900 | 82 | 200 | 0.0 | 2.0 | 0.00 | 0.42 | 0.14 | 62 | 1014.4 |
| 20260905151800 | 82 | 204 | 0.0 | 2.0 | 0.00 | 0.42 | 0.14 | 61 | 1014.4 |
| 20260905151700 | 82 | 172 | 0.0 | 2.0 | 0.00 | 0.42 | 0.14 | 61 | 1014.4 |
| 20260905151302 | 82 | 186 | 0.0 | 2.0 | 0.00 | 0.42 | 0.14 | 61 | 1014.4 |
| 20260905151200 | 82 | 194 | 0.0 | 3.0 | 0.00 | 0.42 | 0.14 | 61 | 1014.4 |
| 20260905151103 | 81 | 194 | 0.0 | 3.0 | 0.00 | 0.42 | 0.14 | 62 | 1014.4 |
| 20260905150959 | 81 | 194 | 0.0 | 3.0 | 0.00 | 0.42 | 0.14 | 62 | 1014.3 |
| 20260905150900 | 81 | 227 | 0.0 | 3.0 | 0.00 | 0.42 | 0.14 | 62 | 1014.4 |
| 20260905150759 | 81 | 227 | 0.0 | 3.0 | 0.00 | 0.42 | 0.14 | 64 | 1014.4 |
| 20260905150559 | 81 | 202 | 1.0 | 3.0 | 0.00 | 0.42 | 0.14 | 64 | 1014.3 |
| 20260905150503 | 81 | 194 | 0.0 | 3.0 | 0.00 | 0.42 | 0.14 | 63 | 1014.3 |
| 20260905150401 | 80 | 194 | 0.0 | 3.0 | 0.00 | 0.42 | 0.14 | 62 | 1014.3 |
| 20260905150301 | 80 | 195 | 1.0 | 3.0 | 0.00 | 0.42 | 0.14 | 63 | 1014.4 |
| 20260905150059 | 80 | 112 | 1.0 | 3.0 | 0.00 | 0.42 | 0.14 | 65 | 1014.4 |
| 20260905150000 | 80 | 109 | 3.0 | 3.0 | 0.00 | 0.42 | 0.14 | 65 | 1014.4 |
| 20260905145900 | 80 | 99 | 1.0 | 3.0 | 0.00 | 0.42 | 0.14 | 65 | 1014.4 |
| 20260905145801 | 80 | 150 | 0.0 | 3.0 | 0.00 | 0.42 | 0.14 | 64 | 1014.4 |
| 20260905145659 | 80 | 207 | 2.0 | 3.0 | 0.00 | 0.42 | 0.14 | 65 | 1014.5 |
| 20260905145601 | 80 | 167 | 1.0 | 3.0 | 0.00 | 0.42 | 0.14 | 66 | 1014.4 |
| 20260905145459 | 79 | 119 | 1.0 | 5.0 | 0.00 | 0.42 | 0.14 | 66 | 1014.3 |
| 20260905145359 | 79 | 132 | 0.0 | 5.0 | 0.00 | 0.42 | 0.14 | 65 | 1014.3 |
| 20260905145259 | 79 | 92 | 3.0 | 8.0 | 0.00 | 0.42 | 0.14 | 65 | 1014.3 |
| 20260905145201 | 79 | 130 | 2.0 | 8.0 | 0.00 | 0.42 | 0.14 | 66 | 1014.3 |
| 20260905145100 | 79 | 154 | 2.0 | 8.0 | 0.00 | 0.42 | 0.14 | 67 | 1014.3 |
| 20260905144959 | 79 | 142 | 0.0 | 8.0 | 0.00 | 0.42 | 0.14 | 68 | 1014.3 |
| 20260905144901 | 79 | 175 | 0.0 | 8.0 | 0.00 | 0.42 | 0.14 | 67 | 1014.3 |
| 20260905144600 | 78 | 144 | 3.0 | 8.0 | 0.00 | 0.42 | 0.14 | 66 | 1014.3 |
| 20260905144502 | 78 | 163 | 5.0 | 8.0 | 0.00 | 0.42 | 0.14 | 68 | 1014.3 |
| 20260905144259 | 78 | 166 | 1.0 | 5.0 | 0.00 | 0.42 | 0.14 | 68 | 1014.2 |
| 20260905144202 | 78 | 153 | 0.0 | 5.0 | 0.00 | 0.42 | 0.14 | 67 | 1014.3 |
| 20260905144102 | 78 | 159 | 4.0 | 5.0 | 0.00 | 0.42 | 0.14 | 69 | 1014.3 |
| 20260905143900 | 78 | 117 | 0.0 | 5.0 | 0.00 | 0.42 | 0.14 | 67 | 1014.2 |
| 20260905143700 | 78 | 132 | 0.0 | 5.0 | 0.00 | 0.42 | 0.14 | 68 | 1014.2 |
| 20260905143559 | 78 | 151 | 3.0 | 5.0 | 0.00 | 0.42 | 0.14 | 69 | 1014.2 |
| 20260905143500 | 77 | 145 | 1.0 | 5.0 | 0.00 | 0.42 | 0.14 | 68 | 1014.1 |
| 20260905143400 | 77 | 178 | 2.0 | 5.0 | 0.00 | 0.42 | 0.14 | 69 | 1014.1 |
| 20260905143259 | 77 | 161 | 0.0 | 7.0 | 0.00 | 0.42 | 0.14 | 68 | 1014.3 |
| 20260905143158 | 77 | 156 | 2.0 | 8.0 | 0.00 | 0.42 | 0.14 | 68 | 1014.3 |
| 20260905142959 | 77 | 192 | 3.0 | 8.0 | 0.00 | 0.42 | 0.14 | 68 | 1014.3 |
| 20260905142901 | 77 | 175 | 2.0 | 8.0 | 0.00 | 0.42 | 0.14 | 69 | 1014.3 |
| 20260905142759 | 77 | 164 | 2.0 | 8.0 | 0.00 | 0.42 | 0.14 | 69 | 1014.3 |
| 20260905142500 | 77 | 189 | 2.0 | 8.0 | 0.00 | 0.42 | 0.14 | 69 | 1014.2 |
| 20260905142400 | 77 | 200 | 4.0 | 8.0 | 0.00 | 0.42 | 0.14 | 70 | 1014.2 |
| 20260905142301 | 77 | 162 | 1.0 | 4.0 | 0.00 | 0.42 | 0.14 | 70 | 1014.2 |
| 20260905142201 | 77 | 144 | 3.0 | 5.0 | 0.00 | 0.42 | 0.14 | 71 | 1014.2 |
| 20260905142001 | 77 | 186 | 2.0 | 6.0 | 0.00 | 0.42 | 0.14 | 72 | 1014.4 |
| 20260905141859 | 76 | 167 | 1.0 | 6.0 | 0.00 | 0.42 | 0.14 | 72 | 1014.3 |
| 20260905141559 | 76 | 146 | 2.0 | 6.0 | 0.00 | 0.42 | 0.14 | 72 | 1014.3 |
| 20260905141459 | 76 | 149 | 3.0 | 6.0 | 0.00 | 0.42 | 0.14 | 72 | 1014.4 |
| 20260905141400 | 76 | 134 | 3.0 | 6.0 | 0.00 | 0.42 | 0.14 | 72 | 1014.4 |
| 20260905141301 | 76 | 138 | 1.0 | 6.0 | 0.00 | 0.42 | 0.14 | 72 | 1014.5 |
| 20260905141200 | 76 | 187 | 2.0 | 6.0 | 0.00 | 0.42 | 0.14 | 72 | 1014.7 |
| 20260905141100 | 76 | 167 | 4.0 | 3.0 | 0.00 | 0.42 | 0.14 | 73 | 1014.6 |
| 20260905141001 | 75 | 128 | 0.0 | 5.0 | 0.00 | 0.42 | 0.14 | 72 | 1014.6 |
| 20260905140900 | 75 | 175 | 0.0 | 5.0 | 0.00 | 0.42 | 0.14 | 73 | 1014.6 |
| 20260905140800 | 75 | 63 | 1.0 | 5.0 | 0.00 | 0.42 | 0.14 | 74 | 1014.5 |
| 20260905140703 | 75 | 175 | 0.0 | 5.0 | 0.00 | 0.42 | 0.14 | 74 | 1014.5 |
| 20260905140600 | 75 | 175 | 0.0 | 5.0 | 0.00 | 0.42 | 0.14 | 74 | 1014.5 |
| 20260905140459 | 75 | 213 | 0.0 | 6.0 | 0.00 | 0.42 | 0.14 | 74 | 1014.6 |
| 20260905140259 | 75 | 126 | 1.0 | 6.0 | 0.00 | 0.42 | 0.14 | 74 | 1014.6 |
| 20260905140200 | 75 | 150 | 0.0 | 6.0 | 0.00 | 0.42 | 0.14 | 74 | 1014.6 |
| 20260905140001 | 75 | 165 | 2.0 | 6.0 | 0.00 | 0.42 | 0.14 | 75 | 1014.7 |
| 20260905135901 | 74 | 103 | 0.0 | 6.0 | 0.00 | 0.42 | 0.14 | 75 | 1014.6 |
| 20260905135800 | 74 | 167 | 1.0 | 6.0 | 0.00 | 0.42 | 0.14 | 75 | 1014.6 |
| 20260905135659 | 74 | 166 | 1.0 | 6.0 | 0.00 | 0.42 | 0.14 | 74 | 1014.7 |
| 20260905135600 | 74 | 146 | 2.0 | 6.0 | 0.00 | 0.42 | 0.14 | 75 | 1014.7 |
| 20260905135401 | 74 | 167 | 1.0 | 4.0 | 0.00 | 0.42 | 0.14 | 76 | 1014.7 |
| 20260905135200 | 74 | 160 | 2.0 | 4.0 | 0.00 | 0.42 | 0.14 | 77 | 1014.9 |
| 20260905135100 | 74 | 126 | 1.0 | 4.0 | 0.00 | 0.42 | 0.14 | 78 | 1014.9 |
| 20260905134959 | 74 | 80 | 1.0 | 4.0 | 0.00 | 0.42 | 0.14 | 78 | 1015.0 |
| 20260905134758 | 73 | 136 | 2.0 | 6.0 | 0.00 | 0.42 | 0.14 | 78 | 1015.0 |
| 20260905134700 | 73 | 151 | 0.0 | 6.0 | 0.00 | 0.42 | 0.14 | 78 | 1015.1 |
| 20260905134559 | 73 | 115 | 4.0 | 6.0 | 0.00 | 0.42 | 0.14 | 78 | 1015.1 |
| 20260905134459 | 73 | 161 | 0.0 | 6.0 | 0.00 | 0.42 | 0.14 | 78 | 1015.3 |
| 20260905134359 | 73 | 121 | 0.0 | 6.0 | 0.00 | 0.42 | 0.14 | 78 | 1015.3 |
| 20260905134300 | 73 | 125 | 0.0 | 6.0 | 0.00 | 0.42 | 0.14 | 79 | 1015.3 |
| 20260905134200 | 73 | 132 | 1.0 | 6.0 | 0.00 | 0.42 | 0.14 | 78 | 1015.5 |
| 20260905134100 | 73 | 173 | 2.0 | 6.0 | 0.00 | 0.42 | 0.14 | 79 | 1015.5 |
| 20260905134002 | 72 | 112 | 1.0 | 4.0 | 0.00 | 0.42 | 0.14 | 80 | 1015.5 |
| 20260905133859 | 72 | 151 | 1.0 | 4.0 | 0.00 | 0.42 | 0.14 | 80 | 1015.5 |
| 20260905133800 | 72 | 153 | 1.0 | 4.0 | 0.00 | 0.42 | 0.14 | 81 | 1015.6 |
| 20260905133700 | 72 | 135 | 1.0 | 4.0 | 0.00 | 0.42 | 0.14 | 81 | 1015.6 |
| 20260905133559 | 72 | 142 | 1.0 | 4.0 | 0.00 | 0.42 | 0.14 | 82 | 1015.8 |
| 20260905133500 | 72 | 67 | 2.0 | 4.0 | 0.00 | 0.42 | 0.14 | 82 | 1015.8 |
| 20260905133400 | 72 | 163 | 4.0 | 4.0 | 0.00 | 0.42 | 0.14 | 82 | 1015.8 |
| 20260905133300 | 71 | 103 | 0.0 | 4.0 | 0.00 | 0.42 | 0.14 | 82 | 1015.8 |
| 20260905133200 | 71 | 128 | 2.0 | 4.0 | 0.00 | 0.42 | 0.14 | 83 | 1015.9 |
| 20260905132959 | 71 | 144 | 1.0 | 4.0 | 0.00 | 0.42 | 0.14 | 84 | 1016.0 |
| 20260905132858 | 71 | 184 | 0.0 | 4.0 | 0.00 | 0.42 | 0.14 | 84 | 1016.0 |
| 20260905132757 | 71 | 184 | 0.0 | 4.0 | 0.00 | 0.42 | 0.14 | 84 | 1016.0 |
| 20260905132657 | 71 | 184 | 1.0 | 4.0 | 0.00 | 0.42 | 0.14 | 85 | 1016.1 |
| 20260905132459 | 71 | 153 | 0.0 | 4.0 | 0.00 | 0.42 | 0.14 | 86 | 1016.1 |
| 20260905132358 | 70 | 78 | 1.0 | 4.0 | 0.00 | 0.42 | 0.14 | 86 | 1016.0 |
| 20260905132301 | 70 | 150 | 0.0 | 3.0 | 0.00 | 0.42 | 0.14 | 85 | 1016.1 |
| 20260905132100 | 70 | 145 | 1.0 | 3.0 | 0.00 | 0.42 | 0.14 | 86 | 1016.1 |
| 20260905131958 | 70 | 214 | 2.0 | 4.0 | 0.00 | 0.42 | 0.14 | 86 | 1016.2 |
| 20260905131858 | 70 | 157 | 1.0 | 3.0 | 0.00 | 0.42 | 0.14 | 87 | 1016.2 |
| 20260905131758 | 70 | 130 | 1.0 | 1.0 | 0.00 | 0.42 | 0.14 | 87 | 1016.3 |
| 20260905131657 | 70 | 120 | 0.0 | 0.0 | 0.00 | 0.42 | 0.14 | 87 | 1016.3 |
| 20260905131558 | 70 | 126 | 0.0 | 0.0 | 0.00 | 0.42 | 0.14 | 87 | 1016.3 |
| 20260905131458 | 70 | 121 | 0.0 | 0.0 | 0.00 | 0.42 | 0.14 | 87 | 1016.3 |
| 20260905131358 | 70 | 133 | 0.0 | 0.0 | 0.00 | 0.42 | 0.14 | 87 | 1016.2 |
| 20260905131259 | 70 | 140 | 0.0 | 0.0 | 0.00 | 0.42 | 0.14 | 87 | 1016.3 |
| 20260905131158 | 70 | 140 | 0.0 | 0.0 | 0.00 | 0.42 | 0.14 | 88 | 1016.4 |
| 20260905131058 | 70 | 144 | 0.0 | 0.0 | 0.00 | 0.42 | 0.14 | 88 | 1016.3 |
| 20260905130957 | 69 | 144 | 0.0 | 0.0 | 0.00 | 0.42 | 0.14 | 88 | 1016.4 |
| 20260905130858 | 69 | 144 | 0.0 | 0.0 | 0.00 | 0.42 | 0.14 | 88 | 1016.5 |
| 20260905130658 | 69 | 282 | 0.0 | 0.0 | 0.00 | 0.42 | 0.14 | 88 | 1016.5 |
| 20260905130559 | 69 | 178 | 0.0 | 0.0 | 0.00 | 0.42 | 0.14 | 89 | 1016.5 |
| 20260905130458 | 69 | 325 | 0.0 | 0.0 | 0.00 | 0.42 | 0.14 | 89 | 1016.5 |
| 20260905130359 | 69 | 325 | 0.0 | 0.0 | 0.00 | 0.42 | 0.14 | 89 | 1016.5 |
| 20260905130300 | 69 | 325 | 0.0 | 1.0 | 0.00 | 0.42 | 0.14 | 89 | 1016.4 |
| 20260905130159 | 69 | 325 | 0.0 | 1.0 | 0.00 | 0.42 | 0.14 | 89 | 1016.4 |
| 20260905130002 | 69 | 227 | 0.0 | 1.0 | 0.01 | 0.42 | 0.14 | 89 | 1016.3 |
| 20260905125859 | 69 | 22 | 0.0 | 1.0 | 0.01 | 0.42 | 0.14 | 89 | 1016.2 |
| 20260905125759 | 69 | 22 | 0.0 | 1.0 | 0.01 | 0.42 | 0.14 | 89 | 1016.2 |
| 20260905125659 | 69 | 22 | 0.0 | 1.0 | 0.01 | 0.42 | 0.14 | 89 | 1016.2 |
| 20260905125402 | 69 | 22 | 1.0 | 1.0 | 0.01 | 0.42 | 0.14 | 89 | 1016.2 |
| 20260905125300 | 69 | 22 | 0.0 | 1.0 | 0.01 | 0.42 | 0.14 | 88 | 1016.2 |
| 20260905125158 | 69 | 22 | 0.0 | 1.0 | 0.01 | 0.42 | 0.14 | 88 | 1016.0 |
| 20260905125058 | 69 | 22 | 0.0 | 1.0 | 0.01 | 0.42 | 0.14 | 88 | 1016.0 |
| 20260905125000 | 69 | 22 | 1.0 | 1.0 | 0.02 | 0.42 | 0.14 | 88 | 1016.0 |
| 20260905124901 | 69 | 9 | 0.0 | 1.0 | 0.02 | 0.42 | 0.14 | 88 | 1016.0 |
| 20260905124800 | 69 | 355 | 0.0 | 1.0 | 0.02 | 0.42 | 0.14 | 88 | 1016.0 |
| 20260905124659 | 69 | 355 | 0.0 | 1.0 | 0.02 | 0.42 | 0.14 | 88 | 1015.9 |
| 20260905124601 | 69 | 355 | 0.0 | 1.0 | 0.02 | 0.42 | 0.14 | 89 | 1015.9 |
| 20260905124459 | 69 | 355 | 0.0 | 1.0 | 0.02 | 0.42 | 0.14 | 89 | 1015.8 |
| 20260905124359 | 69 | 355 | 0.0 | 1.0 | 0.02 | 0.42 | 0.14 | 89 | 1015.8 |
| 20260905124158 | 69 | 355 | 0.0 | 1.0 | 0.02 | 0.42 | 0.14 | 89 | 1015.8 |
| 20260905124101 | 69 | 355 | 0.0 | 1.0 | 0.02 | 0.42 | 0.14 | 88 | 1015.8 |
| 20260905123959 | 69 | 355 | 0.0 | 1.0 | 0.03 | 0.42 | 0.14 | 88 | 1015.9 |
| 20260905123859 | 69 | 355 | 0.0 | 1.0 | 0.03 | 0.42 | 0.14 | 88 | 1015.9 |
| 20260905123801 | 69 | 355 | 0.0 | 1.0 | 0.03 | 0.42 | 0.14 | 88 | 1015.9 |
| 20260905123659 | 69 | 355 | 0.0 | 0.0 | 0.03 | 0.42 | 0.14 | 88 | 1015.9 |
| 20260905123600 | 69 | 355 | 0.0 | 0.0 | 0.03 | 0.42 | 0.14 | 88 | 1015.8 |
| 20260905123502 | 69 | 355 | 0.0 | 0.0 | 0.03 | 0.42 | 0.14 | 88 | 1015.8 |
| 20260905123359 | 69 | 355 | 0.0 | 0.0 | 0.03 | 0.42 | 0.14 | 89 | 1015.8 |
| 20260905123259 | 69 | 355 | 0.0 | 1.0 | 0.04 | 0.42 | 0.14 | 88 | 1015.7 |
| 20260905123159 | 69 | 355 | 0.0 | 1.0 | 0.04 | 0.42 | 0.14 | 88 | 1015.8 |
| 20260905123059 | 69 | 355 | 0.0 | 1.0 | 0.04 | 0.42 | 0.14 | 88 | 1015.7 |
| 20260905123003 | 68 | 355 | 0.0 | 1.0 | 0.04 | 0.42 | 0.14 | 88 | 1015.8 |
| 20260905122759 | 68 | 355 | 0.0 | 1.0 | 0.04 | 0.42 | 0.14 | 88 | 1015.8 |
| 20260905122659 | 68 | 355 | 0.0 | 1.0 | 0.04 | 0.42 | 0.14 | 88 | 1015.8 |
| 20260905122601 | 68 | 355 | 0.0 | 1.0 | 0.04 | 0.42 | 0.14 | 88 | 1015.6 |
| 20260905122459 | 68 | 355 | 0.0 | 2.0 | 0.05 | 0.42 | 0.14 | 88 | 1015.6 |
| 20260905122359 | 68 | 355 | 0.0 | 2.0 | 0.05 | 0.42 | 0.14 | 88 | 1015.6 |
| 20260905122259 | 68 | 355 | 0.0 | 2.0 | 0.05 | 0.42 | 0.14 | 87 | 1015.6 |
| 20260905122159 | 68 | 355 | 0.0 | 2.0 | 0.05 | 0.42 | 0.14 | 87 | 1015.6 |
| 20260905122100 | 68 | 355 | 0.0 | 2.0 | 0.05 | 0.42 | 0.14 | 87 | 1015.6 |
| 20260905121959 | 68 | 355 | 0.0 | 2.0 | 0.05 | 0.42 | 0.14 | 87 | 1015.5 |
| 20260905121859 | 68 | 355 | 0.0 | 2.0 | 0.06 | 0.42 | 0.14 | 87 | 1015.6 |
| 20260905121800 | 68 | 355 | 0.0 | 3.0 | 0.06 | 0.42 | 0.14 | 87 | 1015.5 |
| 20260905121659 | 68 | 5 | 1.0 | 3.0 | 0.06 | 0.42 | 0.14 | 87 | 1015.5 |
| 20260905121558 | 68 | 164 | 0.0 | 3.0 | 0.06 | 0.42 | 0.14 | 87 | 1015.5 |
| 20260905121500 | 68 | 164 | 0.0 | 3.0 | 0.06 | 0.42 | 0.14 | 87 | 1015.5 |
| 20260905121400 | 68 | 164 | 0.0 | 3.0 | 0.06 | 0.42 | 0.14 | 87 | 1015.5 |
| 20260905121300 | 68 | 164 | 0.0 | 3.0 | 0.06 | 0.42 | 0.14 | 87 | 1015.5 |
| 20260905121200 | 68 | 164 | 0.0 | 3.0 | 0.07 | 0.42 | 0.14 | 87 | 1015.4 |
| 20260905121058 | 68 | 161 | 0.0 | 3.0 | 0.07 | 0.42 | 0.14 | 87 | 1015.5 |
| 20260905120959 | 68 | 161 | 2.0 | 4.0 | 0.07 | 0.42 | 0.14 | 87 | 1015.5 |
| 20260905120800 | 68 | 286 | 0.0 | 3.0 | 0.07 | 0.42 | 0.14 | 87 | 1015.4 |
| 20260905120659 | 68 | 348 | 0.0 | 3.0 | 0.08 | 0.42 | 0.14 | 87 | 1015.4 |
| 20260905120559 | 68 | 83 | 0.0 | 4.0 | 0.08 | 0.42 | 0.14 | 87 | 1015.4 |
| 20260905120459 | 68 | 46 | 0.0 | 4.0 | 0.08 | 0.42 | 0.14 | 87 | 1015.5 |
| 20260905120302 | 68 | 324 | 1.0 | 5.0 | 0.08 | 0.42 | 0.14 | 87 | 1015.4 |
| 20260905120100 | 68 | 18 | 2.0 | 8.0 | 0.08 | 0.41 | 0.13 | 87 | 1015.5 |
| 20260905115959 | 68 | 355 | 1.0 | 8.0 | 0.08 | 0.41 | 0.13 | 87 | 1015.4 |
| 20260905115859 | 68 | 43 | 1.0 | 8.0 | 0.08 | 0.41 | 0.13 | 87 | 1015.4 |
| 20260905115758 | 68 | 11 | 1.0 | 8.0 | 0.09 | 0.41 | 0.13 | 87 | 1015.4 |
| 20260905115558 | 68 | 331 | 2.0 | 8.0 | 0.09 | 0.41 | 0.13 | 87 | 1015.4 |
| 20260905115458 | 68 | 355 | 1.0 | 8.0 | 0.10 | 0.41 | 0.13 | 87 | 1015.4 |
| 20260905115357 | 68 | 360 | 2.0 | 8.0 | 0.10 | 0.41 | 0.13 | 87 | 1015.4 |
| 20260905115258 | 68 | 68 | 2.0 | 8.0 | 0.10 | 0.41 | 0.13 | 87 | 1015.4 |
| 20260905115158 | 68 | 342 | 4.0 | 6.0 | 0.10 | 0.41 | 0.13 | 87 | 1015.5 |
| 20260905115058 | 68 | 350 | 2.0 | 6.0 | 0.11 | 0.41 | 0.13 | 87 | 1015.5 |
| 20260905114959 | 68 | 350 | 3.0 | 5.0 | 0.10 | 0.40 | 0.12 | 87 | 1015.5 |
| 20260905114900 | 68 | 53 | 2.0 | 5.0 | 0.10 | 0.40 | 0.12 | 87 | 1015.6 |
| 20260905114658 | 68 | 315 | 2.0 | 5.0 | 0.11 | 0.40 | 0.12 | 87 | 1015.6 |
| 20260905114558 | 68 | 324 | 2.0 | 5.0 | 0.11 | 0.40 | 0.12 | 88 | 1015.7 |
| 20260905114359 | 68 | 19 | 4.0 | 5.0 | 0.12 | 0.40 | 0.12 | 88 | 1015.6 |
| 20260905114158 | 68 | 355 | 1.0 | 5.0 | 0.12 | 0.40 | 0.12 | 88 | 1015.6 |
| 20260905114058 | 68 | 18 | 1.0 | 5.0 | 0.11 | 0.39 | 0.11 | 88 | 1015.6 |
| 20260905113958 | 68 | 325 | 2.0 | 5.0 | 0.11 | 0.39 | 0.11 | 88 | 1015.6 |
| 20260905113858 | 68 | 335 | 3.0 | 5.0 | 0.11 | 0.39 | 0.11 | 88 | 1015.6 |
| 20260905113802 | 68 | 57 | 4.0 | 5.0 | 0.11 | 0.39 | 0.11 | 88 | 1015.6 |
| 20260905113301 | 68 | 330 | 2.0 | 5.0 | 0.10 | 0.38 | 0.10 | 88 | 1015.5 |
| 20260905113212 | 68 | 24 | 3.0 | 5.0 | 0.10 | 0.38 | 0.10 | 88 | 1015.5 |
| 20260905113114 | 68 | 341 | 1.0 | 5.0 | 0.10 | 0.38 | 0.10 | 88 | 1015.6 |
| 20260905113005 | 68 | 14 | 2.0 | 5.0 | 0.10 | 0.38 | 0.10 | 88 | 1015.6 |
| 20260905112907 | 68 | 343 | 0.0 | 5.0 | 0.10 | 0.38 | 0.10 | 88 | 1015.7 |
| 20260905112814 | 68 | 342 | 1.0 | 5.0 | 0.10 | 0.38 | 0.10 | 88 | 1015.8 |
| 20260905112709 | 67 | 21 | 0.0 | 5.0 | 0.10 | 0.38 | 0.10 | 88 | 1015.8 |
| 20260905112600 | 67 | 18 | 0.0 | 5.0 | 0.09 | 0.37 | 0.09 | 88 | 1015.8 |
| 20260905112257 | 67 | 334 | 2.0 | 4.0 | 0.09 | 0.37 | 0.09 | 88 | 1015.7 |
| 20260905112159 | 67 | 251 | 0.0 | 6.0 | 0.09 | 0.37 | 0.09 | 88 | 1015.7 |
| 20260905112057 | 67 | 355 | 1.0 | 6.0 | 0.09 | 0.37 | 0.09 | 88 | 1015.7 |
| 20260905111859 | 67 | 328 | 0.0 | 8.0 | 0.08 | 0.36 | 0.08 | 87 | 1015.7 |
| 20260905111759 | 67 | 21 | 0.0 | 8.0 | 0.08 | 0.36 | 0.08 | 88 | 1015.6 |
| 20260905111659 | 67 | 31 | 1.0 | 8.0 | 0.08 | 0.36 | 0.08 | 87 | 1015.7 |
| 20260905111558 | 68 | 22 | 0.0 | 8.0 | 0.08 | 0.36 | 0.08 | 87 | 1015.7 |
| 20260905111459 | 67 | 321 | 3.0 | 10.0 | 0.08 | 0.36 | 0.08 | 87 | 1015.8 |
| 20260905111400 | 68 | 34 | 3.0 | 10.0 | 0.08 | 0.36 | 0.08 | 87 | 1015.7 |
| 20260905111258 | 68 | 350 | 5.0 | 10.0 | 0.07 | 0.35 | 0.07 | 87 | 1015.7 |
| 20260905111059 | 68 | 128 | 1.0 | 10.0 | 0.07 | 0.35 | 0.07 | 87 | 1015.7 |
| 20260905110958 | 68 | 32 | 0.0 | 10.0 | 0.07 | 0.35 | 0.07 | 87 | 1015.6 |
| 20260905110858 | 68 | 5 | 3.0 | 10.0 | 0.07 | 0.35 | 0.07 | 87 | 1015.6 |
| 20260905110757 | 68 | 28 | 2.0 | 10.0 | 0.06 | 0.34 | 0.06 | 87 | 1015.6 |
| 20260905110659 | 68 | 12 | 3.0 | 10.0 | 0.06 | 0.34 | 0.06 | 87 | 1015.7 |
| 20260905110558 | 68 | 344 | 1.0 | 10.0 | 0.06 | 0.34 | 0.06 | 87 | 1015.7 |
| 20260905110458 | 68 | 324 | 4.0 | 11.0 | 0.06 | 0.34 | 0.06 | 86 | 1015.8 |
| 20260905110358 | 68 | 20 | 3.0 | 12.0 | 0.06 | 0.34 | 0.06 | 86 | 1015.9 |
| 20260905110300 | 68 | 348 | 5.0 | 15.0 | 0.05 | 0.33 | 0.05 | 86 | 1015.9 |
| 20260905110158 | 68 | 29 | 4.0 | 19.0 | 0.05 | 0.33 | 0.05 | 86 | 1015.8 |
| 20260905110058 | 68 | 26 | 5.0 | 19.0 | 0.05 | 0.33 | 0.05 | 86 | 1015.9 |
| 20260905105900 | 68 | 99 | 3.0 | 19.0 | 0.05 | 0.33 | 0.05 | 85 | 1015.8 |
| 20260905105759 | 68 | 355 | 5.0 | 19.0 | 0.04 | 0.32 | 0.04 | 85 | 1015.7 |
| 20260905105659 | 68 | 9 | 4.0 | 19.0 | 0.04 | 0.32 | 0.04 | 85 | 1015.6 |
| 20260905105601 | 69 | 355 | 5.0 | 19.0 | 0.04 | 0.32 | 0.04 | 84 | 1015.7 |
| 20260905105500 | 69 | 15 | 2.0 | 19.0 | 0.03 | 0.31 | 0.03 | 84 | 1015.6 |
| 20260905105400 | 69 | 39 | 14.0 | 18.0 | 0.03 | 0.31 | 0.03 | 84 | 1015.7 |
| 20260905105301 | 69 | 355 | 9.0 | 17.0 | 0.03 | 0.31 | 0.03 | 84 | 1015.9 |
| 20260905105159 | 69 | 29 | 6.0 | 17.0 | 0.03 | 0.31 | 0.03 | 84 | 1015.9 |
| 20260905105100 | 70 | 76 | 3.0 | 17.0 | 0.02 | 0.30 | 0.02 | 83 | 1015.9 |
| 20260905104959 | 70 | 345 | 9.0 | 17.0 | 0.02 | 0.30 | 0.02 | 83 | 1015.9 |
| 20260905104859 | 71 | 43 | 9.0 | 21.0 | 0.02 | 0.30 | 0.02 | 82 | 1016.1 |
| 20260905104800 | 71 | 348 | 8.0 | 21.0 | 0.01 | 0.29 | 0.01 | 82 | 1016.2 |
| 20260905104659 | 71 | 355 | 5.0 | 21.0 | 0.01 | 0.29 | 0.01 | 81 | 1016.4 |
| 20260905104559 | 71 | 69 | 5.0 | 21.0 | 0.01 | 0.29 | 0.01 | 81 | 1016.4 |
| 20260905104502 | 72 | 322 | 3.0 | 21.0 | 0.01 | 0.29 | 0.01 | 80 | 1016.4 |
| 20260905104401 | 72 | 26 | 3.0 | 21.0 | 0.00 | 0.28 | 0.00 | 79 | 1016.4 |
| 20260905104259 | 72 | 35 | 6.0 | 21.0 | 0.00 | 0.28 | 0.00 | 78 | 1016.3 |
| 20260905104200 | 72 | 5 | 9.0 | 21.0 | 0.00 | 0.28 | 0.00 | 79 | 1016.3 |
| 20260905104059 | 72 | 105 | 4.0 | 21.0 | 0.00 | 0.28 | 0.00 | 80 | 1016.3 |
| 20260905104000 | 73 | 314 | 9.0 | 18.0 | 0.00 | 0.28 | 0.00 | 80 | 1016.2 |
| 20260905103859 | 73 | 74 | 13.0 | 18.0 | 0.00 | 0.28 | 0.00 | 80 | 1015.9 |
| 20260905103759 | 73 | 337 | 4.0 | 20.0 | 0.00 | 0.28 | 0.00 | 79 | 1015.7 |
| 20260905103700 | 73 | 103 | 18.0 | 20.0 | 0.00 | 0.28 | 0.00 | 80 | 1015.4 |
| 20260905103559 | 73 | 328 | 8.0 | 20.0 | 0.00 | 0.28 | 0.00 | 80 | 1015.5 |
| 20260905103500 | 73 | 309 | 8.0 | 20.0 | 0.00 | 0.28 | 0.00 | 79 | 1015.2 |
| 20260905103400 | 73 | 39 | 5.0 | 20.0 | 0.00 | 0.28 | 0.00 | 79 | 1015.2 |
| 20260905103158 | 73 | 51 | 10.0 | 24.0 | 0.00 | 0.28 | 0.00 | 79 | 1015.3 |
| 20260905102900 | 74 | 52 | 14.0 | 24.0 | 0.00 | 0.28 | 0.00 | 79 | 1015.4 |
| 20260905102759 | 74 | 17 | 10.0 | 24.0 | 0.00 | 0.28 | 0.00 | 80 | 1015.3 |
| 20260905102701 | 74 | 316 | 8.0 | 24.0 | 0.00 | 0.28 | 0.00 | 79 | 1015.3 |
| 20260905102559 | 74 | 10 | 15.0 | 24.0 | 0.00 | 0.28 | 0.00 | 79 | 1015.3 |
| 20260905102501 | 74 | 72 | 15.0 | 24.0 | 0.00 | 0.28 | 0.00 | 81 | 1015.3 |
| 20260905102403 | 74 | 15 | 10.0 | 18.0 | 0.00 | 0.28 | 0.00 | 82 | 1015.3 |
| 20260905102258 | 74 | 310 | 15.0 | 18.0 | 0.00 | 0.28 | 0.00 | 83 | 1015.5 |
| 20260905102159 | 74 | 345 | 5.0 | 14.0 | 0.00 | 0.28 | 0.00 | 85 | 1015.3 |
| 20260905101958 | 74 | 10 | 7.0 | 14.0 | 0.00 | 0.28 | 0.00 | 86 | 1015.2 |
| 20260905101859 | 74 | 347 | 9.0 | 13.0 | 0.00 | 0.28 | 0.00 | 87 | 1015.2 |
| 20260905101700 | 74 | 15 | 11.0 | 11.0 | 0.00 | 0.28 | 0.00 | 87 | 1014.2 |
| 20260905101600 | 74 | 22 | 3.0 | 4.0 | 0.00 | 0.28 | 0.00 | 87 | 1013.9 |
| 20260905101500 | 74 | 14 | 0.0 | 1.0 | 0.00 | 0.28 | 0.00 | 87 | 1013.8 |
| 20260905101359 | 74 | 14 | 0.0 | 0.0 | 0.00 | 0.28 | 0.00 | 87 | 1013.7 |
| 20260905101257 | 74 | 14 | 0.0 | 0.0 | 0.00 | 0.28 | 0.00 | 87 | 1013.6 |
| 20260905101159 | 74 | 14 | 0.0 | 0.0 | 0.00 | 0.28 | 0.00 | 87 | 1013.5 |
| 20260905101100 | 74 | 14 | 0.0 | 0.0 | 0.00 | 0.28 | 0.00 | 87 | 1013.6 |
| 20260905100958 | 74 | 14 | 0.0 | 0.0 | 0.00 | 0.28 | 0.00 | 87 | 1013.6 |
| 20260905100857 | 74 | 14 | 0.0 | 0.0 | 0.00 | 0.28 | 0.00 | 88 | 1013.7 |
| 20260905100758 | 74 | 14 | 0.0 | 0.0 | 0.00 | 0.28 | 0.00 | 88 | 1013.6 |
| 20260905100658 | 74 | 14 | 0.0 | 0.0 | 0.00 | 0.28 | 0.00 | 88 | 1013.7 |
| 20260905100558 | 74 | 14 | 0.0 | 0.0 | 0.00 | 0.28 | 0.00 | 88 | 1013.7 |
| 20260905100457 | 74 | 14 | 0.0 | 0.0 | 0.00 | 0.28 | 0.00 | 88 | 1013.7 |
| 20260905100358 | 74 | 14 | 0.0 | 0.0 | 0.00 | 0.28 | 0.00 | 88 | 1013.8 |
| 20260905100258 | 73 | 14 | 0.0 | 0.0 | 0.00 | 0.28 | 0.00 | 88 | 1013.8 |
| 20260905100159 | 73 | 14 | 0.0 | 0.0 | 0.00 | 0.28 | 0.00 | 88 | 1013.7 |
| 20260905095958 | 73 | 14 | 0.0 | 0.0 | 0.00 | 0.28 | 0.00 | 88 | 1013.8 |
| 20260905095858 | 73 | 14 | 0.0 | 0.0 | 0.00 | 0.28 | 0.00 | 88 | 1013.8 |
| 20260905095758 | 73 | 14 | 0.0 | 0.0 | 0.00 | 0.28 | 0.00 | 88 | 1013.8 |
| 20260905095658 | 73 | 14 | 0.0 | 0.0 | 0.00 | 0.28 | 0.00 | 88 | 1013.8 |
| 20260905095458 | 73 | 14 | 0.0 | 0.0 | 0.00 | 0.28 | 0.00 | 88 | 1013.8 |
| 20260905095357 | 73 | 14 | 0.0 | 0.0 | 0.00 | 0.28 | 0.00 | 88 | 1013.7 |
| 20260905095258 | 73 | 14 | 0.0 | 0.0 | 0.00 | 0.28 | 0.00 | 88 | 1013.7 |
| 20260905095158 | 73 | 14 | 0.0 | 0.0 | 0.00 | 0.28 | 0.00 | 88 | 1013.7 |
| 20260905095058 | 73 | 14 | 0.0 | 0.0 | 0.00 | 0.28 | 0.00 | 88 | 1013.7 |
| 20260905094958 | 73 | 14 | 0.0 | 0.0 | 0.00 | 0.28 | 0.00 | 88 | 1013.7 |
| 20260905094858 | 73 | 14 | 0.0 | 0.0 | 0.00 | 0.28 | 0.00 | 88 | 1013.7 |
| 20260905094758 | 73 | 14 | 0.0 | 0.0 | 0.00 | 0.28 | 0.00 | 88 | 1013.7 |
| 20260905094658 | 73 | 14 | 0.0 | 0.0 | 0.00 | 0.28 | 0.00 | 88 | 1013.7 |
| 20260905094600 | 73 | 14 | 0.0 | 0.0 | 0.00 | 0.28 | 0.00 | 88 | 1013.7 |
| 20260905094358 | 73 | 14 | 0.0 | 0.0 | 0.00 | 0.28 | 0.00 | 88 | 1013.7 |
| 20260905094258 | 73 | 14 | 0.0 | 0.0 | 0.00 | 0.28 | 0.00 | 88 | 1013.7 |
| 20260905094100 | 73 | 14 | 0.0 | 0.0 | 0.00 | 0.28 | 0.00 | 88 | 1013.6 |
| 20260905093858 | 73 | 14 | 0.0 | 0.0 | 0.00 | 0.28 | 0.00 | 88 | 1013.7 |
| 20260905093658 | 73 | 14 | 0.0 | 0.0 | 0.00 | 0.28 | 0.00 | 88 | 1013.6 |
| 20260905093558 | 73 | 14 | 0.0 | 0.0 | 0.00 | 0.28 | 0.00 | 88 | 1013.6 |
| 20260905093459 | 73 | 14 | 0.0 | 0.0 | 0.00 | 0.28 | 0.00 | 88 | 1013.6 |
| 20260905093357 | 73 | 14 | 0.0 | 0.0 | 0.00 | 0.28 | 0.00 | 88 | 1013.6 |
| 20260905093259 | 73 | 13 | 0.0 | 0.0 | 0.00 | 0.28 | 0.00 | 88 | 1013.6 |
| 20260905093058 | 73 | 14 | 0.0 | 0.0 | 0.00 | 0.28 | 0.00 | 88 | 1013.5 |
| 20260905092957 | 73 | 14 | 0.0 | 0.0 | 0.00 | 0.28 | 0.00 | 88 | 1013.5 |
| 20260905092858 | 73 | 14 | 0.0 | 0.0 | 0.00 | 0.28 | 0.00 | 88 | 1013.5 |
| 20260905092658 | 73 | 14 | 0.0 | 0.0 | 0.00 | 0.28 | 0.00 | 88 | 1013.5 |
| 20260905092600 | 73 | 14 | 0.0 | 0.0 | 0.00 | 0.28 | 0.00 | 88 | 1013.5 |
| 20260905092159 | 73 | 14 | 0.0 | 0.0 | 0.00 | 0.28 | 0.00 | 87 | 1013.5 |
| 20260905091958 | 73 | 14 | 0.0 | 0.0 | 0.00 | 0.28 | 0.00 | 87 | 1013.4 |
| 20260905091857 | 73 | 14 | 0.0 | 0.0 | 0.00 | 0.28 | 0.00 | 87 | 1013.4 |
| 20260905091800 | 73 | 14 | 0.0 | 0.0 | 0.00 | 0.28 | 0.00 | 87 | 1013.4 |
| 20260905091657 | 73 | 14 | 0.0 | 0.0 | 0.00 | 0.28 | 0.00 | 87 | 1013.4 |
| 20260905091559 | 73 | 14 | 0.0 | 0.0 | 0.00 | 0.28 | 0.00 | 87 | 1013.4 |
| 20260905091500 | 73 | 14 | 0.0 | 0.0 | 0.00 | 0.28 | 0.00 | 87 | 1013.4 |
| 20260905091359 | 73 | 14 | 0.0 | 0.0 | 0.00 | 0.28 | 0.00 | 87 | 1013.4 |
| 20260905091158 | 73 | 14 | 0.0 | 0.0 | 0.00 | 0.28 | 0.00 | 87 | 1013.5 |
| 20260905091102 | 73 | 14 | 0.0 | 0.0 | 0.00 | 0.28 | 0.00 | 87 | 1013.4 |
| 20260905091000 | 73 | 14 | 0.0 | 0.0 | 0.00 | 0.28 | 0.00 | 87 | 1013.4 |
| 20260905090859 | 74 | 14 | 0.0 | 0.0 | 0.00 | 0.28 | 0.00 | 88 | 1013.3 |
| 20260905090702 | 73 | 14 | 0.0 | 0.0 | 0.00 | 0.28 | 0.00 | 87 | 1013.3 |
| 20260905090603 | 73 | 14 | 0.0 | 0.0 | 0.00 | 0.28 | 0.00 | 87 | 1013.3 |
| 20260905090459 | 73 | 14 | 0.0 | 0.0 | 0.00 | 0.28 | 0.00 | 87 | 1013.3 |
| 20260905090401 | 73 | 14 | 0.0 | 0.0 | 0.00 | 0.28 | 0.00 | 87 | 1013.4 |
| 20260905090259 | 73 | 14 | 0.0 | 0.0 | 0.00 | 0.28 | 0.00 | 87 | 1013.4 |
| 20260905090200 | 74 | 14 | 0.0 | 0.0 | 0.00 | 0.28 | 0.00 | 87 | 1013.5 |
| 20260905090059 | 74 | 14 | 0.0 | 0.0 | 0.00 | 0.28 | 0.00 | 87 | 1013.5 |
| 20260905085958 | 74 | 14 | 0.0 | 0.0 | 0.00 | 0.28 | 0.00 | 87 | 1013.5 |
| 20260905085858 | 74 | 14 | 0.0 | 0.0 | 0.00 | 0.28 | 0.00 | 87 | 1013.5 |
| 20260905085659 | 74 | 14 | 0.0 | 0.0 | 0.00 | 0.28 | 0.00 | 88 | 1013.5 |
| 20260905085558 | 74 | 14 | 0.0 | 0.0 | 0.00 | 0.28 | 0.00 | 88 | 1013.5 |
| 20260905085459 | 73 | 14 | 0.0 | 0.0 | 0.00 | 0.28 | 0.00 | 88 | 1013.5 |
| 20260905085400 | 73 | 14 | 0.0 | 0.0 | 0.00 | 0.28 | 0.00 | 87 | 1013.6 |
| 20260905085258 | 73 | 14 | 0.0 | 0.0 | 0.00 | 0.28 | 0.00 | 87 | 1013.5 |
| 20260905085058 | 73 | 14 | 0.0 | 0.0 | 0.00 | 0.28 | 0.00 | 87 | 1013.6 |
| 20260905084958 | 73 | 14 | 0.0 | 0.0 | 0.00 | 0.28 | 0.00 | 87 | 1013.4 |
| 20260905084857 | 73 | 14 | 0.0 | 0.0 | 0.00 | 0.28 | 0.00 | 87 | 1013.5 |
| 20260905084758 | 73 | 14 | 0.0 | 0.0 | 0.00 | 0.28 | 0.00 | 87 | 1013.5 |
| 20260905084657 | 73 | 14 | 0.0 | 0.0 | 0.00 | 0.28 | 0.00 | 87 | 1013.5 |
| 20260905084558 | 73 | 14 | 0.0 | 0.0 | 0.00 | 0.28 | 0.00 | 87 | 1013.6 |
| 20260905084458 | 73 | 14 | 0.0 | 0.0 | 0.00 | 0.28 | 0.00 | 87 | 1013.6 |
| 20260905084358 | 73 | 14 | 0.0 | 0.0 | 0.00 | 0.28 | 0.00 | 87 | 1013.5 |
| 20260905084259 | 73 | 14 | 0.0 | 0.0 | 0.00 | 0.28 | 0.00 | 87 | 1013.5 |
| 20260905084158 | 73 | 14 | 0.0 | 0.0 | 0.00 | 0.28 | 0.00 | 87 | 1013.5 |
| 20260905084100 | 73 | 14 | 0.0 | 0.0 | 0.00 | 0.28 | 0.00 | 87 | 1013.5 |
| 20260905083958 | 73 | 14 | 0.0 | 0.0 | 0.00 | 0.28 | 0.00 | 87 | 1013.5 |
| 20260905083858 | 73 | 14 | 0.0 | 0.0 | 0.00 | 0.28 | 0.00 | 87 | 1013.6 |
| 20260905083757 | 73 | 14 | 0.0 | 0.0 | 0.00 | 0.28 | 0.00 | 87 | 1013.6 |
| 20260905083658 | 73 | 14 | 0.0 | 0.0 | 0.00 | 0.28 | 0.00 | 87 | 1013.6 |
| 20260905083557 | 73 | 14 | 0.0 | 0.0 | 0.00 | 0.28 | 0.00 | 87 | 1013.7 |
| 20260905083458 | 73 | 14 | 0.0 | 0.0 | 0.00 | 0.28 | 0.00 | 87 | 1013.6 |
| 20260905083357 | 73 | 14 | 0.0 | 0.0 | 0.00 | 0.28 | 0.00 | 87 | 1013.6 |
| 20260905083300 | 73 | 14 | 0.0 | 0.0 | 0.00 | 0.28 | 0.00 | 87 | 1013.6 |
| 20260905083159 | 73 | 14 | 0.0 | 0.0 | 0.00 | 0.28 | 0.00 | 87 | 1013.7 |
| 20260905083059 | 73 | 14 | 0.0 | 0.0 | 0.00 | 0.28 | 0.00 | 87 | 1013.6 |
| 20260905082957 | 73 | 14 | 0.0 | 0.0 | 0.00 | 0.28 | 0.00 | 87 | 1013.5 |
| 20260905082859 | 73 | 14 | 0.0 | 0.0 | 0.00 | 0.28 | 0.00 | 87 | 1013.5 |
| 20260905082758 | 73 | 14 | 0.0 | 0.0 | 0.00 | 0.28 | 0.00 | 87 | 1013.5 |
| 20260905082557 | 73 | 14 | 0.0 | 0.0 | 0.00 | 0.28 | 0.00 | 87 | 1013.6 |
| 20260905082458 | 73 | 14 | 0.0 | 0.0 | 0.00 | 0.28 | 0.00 | 87 | 1013.6 |
| 20260905082357 | 73 | 14 | 0.0 | 0.0 | 0.00 | 0.28 | 0.00 | 87 | 1013.5 |
| 20260905082257 | 73 | 14 | 0.0 | 0.0 | 0.00 | 0.28 | 0.00 | 87 | 1013.5 |
| 20260905082159 | 73 | 14 | 0.0 | 0.0 | 0.00 | 0.28 | 0.00 | 87 | 1013.5 |
| 20260905082059 | 73 | 14 | 0.0 | 0.0 | 0.00 | 0.28 | 0.00 | 87 | 1013.5 |
| 20260905081900 | 73 | 14 | 0.0 | 0.0 | 0.00 | 0.28 | 0.00 | 87 | 1013.5 |
| 20260905081759 | 73 | 14 | 0.0 | 0.0 | 0.00 | 0.28 | 0.00 | 87 | 1013.4 |
| 20260905081701 | 73 | 14 | 0.0 | 0.0 | 0.00 | 0.28 | 0.00 | 87 | 1013.4 |
| 20260905081559 | 73 | 14 | 0.0 | 0.0 | 0.00 | 0.28 | 0.00 | 87 | 1013.4 |
| 20260905081458 | 73 | 14 | 0.0 | 0.0 | 0.00 | 0.28 | 0.00 | 87 | 1013.4 |
| 20260905081259 | 73 | 14 | 0.0 | 0.0 | 0.00 | 0.28 | 0.00 | 87 | 1013.4 |
| 20260905081203 | 73 | 14 | 0.0 | 0.0 | 0.00 | 0.28 | 0.00 | 87 | 1013.4 |
| 20260905081059 | 73 | 14 | 0.0 | 0.0 | 0.00 | 0.28 | 0.00 | 87 | 1013.4 |
| 20260905080859 | 73 | 14 | 0.0 | 0.0 | 0.00 | 0.28 | 0.00 | 87 | 1013.3 |
| 20260905080758 | 73 | 14 | 0.0 | 0.0 | 0.00 | 0.28 | 0.00 | 87 | 1013.3 |
| 20260905080657 | 73 | 14 | 0.0 | 0.0 | 0.00 | 0.28 | 0.00 | 87 | 1013.2 |
| 20260905080559 | 73 | 14 | 0.0 | 0.0 | 0.00 | 0.28 | 0.00 | 87 | 1013.3 |
| 20260905080458 | 73 | 14 | 0.0 | 0.0 | 0.00 | 0.28 | 0.00 | 87 | 1013.2 |
| 20260905080357 | 73 | 14 | 0.0 | 0.0 | 0.00 | 0.28 | 0.00 | 87 | 1013.3 |
| 20260905080300 | 73 | 14 | 0.0 | 0.0 | 0.00 | 0.28 | 0.00 | 87 | 1013.2 |
| 20260905080158 | 73 | 14 | 0.0 | 0.0 | 0.00 | 0.28 | 0.00 | 87 | 1013.8 |
| 20260905080059 | 73 | 14 | 0.0 | 0.0 | 0.00 | 0.28 | 0.00 | 87 | 1013.2 |
| 20260905080001 | 73 | 14 | 0.0 | 0.0 | 0.00 | 0.28 | 0.00 | 87 | 1013.2 |
| 20260905075859 | 73 | 14 | 0.0 | 0.0 | 0.00 | 0.28 | 0.00 | 87 | 1013.0 |
| 20260905075759 | 73 | 14 | 0.0 | 0.0 | 0.00 | 0.28 | 0.00 | 87 | 1013.0 |
| 20260905075600 | 73 | 14 | 0.0 | 0.0 | 0.00 | 0.28 | 0.00 | 87 | 1013.0 |
| 20260905075458 | 73 | 14 | 0.0 | 0.0 | 0.00 | 0.28 | 0.00 | 87 | 1013.0 |
| 20260905075358 | 73 | 14 | 0.0 | 0.0 | 0.00 | 0.28 | 0.00 | 87 | 1013.0 |
| 20260905075259 | 73 | 14 | 0.0 | 0.0 | 0.00 | 0.28 | 0.00 | 87 | 1013.1 |
| 20260905075159 | 73 | 14 | 0.0 | 0.0 | 0.00 | 0.28 | 0.00 | 87 | 1013.1 |
| 20260905075059 | 73 | 14 | 0.0 | 0.0 | 0.00 | 0.28 | 0.00 | 87 | 1013.0 |
| 20260905075000 | 73 | 14 | 0.0 | 0.0 | 0.00 | 0.28 | 0.00 | 87 | 1012.9 |
| 20260905074900 | 73 | 14 | 0.0 | 0.0 | 0.00 | 0.28 | 0.00 | 87 | 1012.9 |
| 20260905074758 | 73 | 14 | 0.0 | 0.0 | 0.00 | 0.28 | 0.00 | 87 | 1012.8 |
| 20260905074559 | 73 | 14 | 0.0 | 0.0 | 0.00 | 0.28 | 0.00 | 87 | 1012.9 |
| 20260905074500 | 73 | 14 | 0.0 | 0.0 | 0.00 | 0.28 | 0.00 | 87 | 1012.9 |
| 20260905074400 | 73 | 14 | 0.0 | 0.0 | 0.00 | 0.28 | 0.00 | 88 | 1012.8 |
| 20260905074259 | 73 | 14 | 0.0 | 0.0 | 0.00 | 0.28 | 0.00 | 88 | 1012.9 |
| 20260905074159 | 73 | 14 | 0.0 | 0.0 | 0.00 | 0.28 | 0.00 | 88 | 1012.9 |
| 20260905074059 | 73 | 14 | 0.0 | 0.0 | 0.00 | 0.28 | 0.00 | 88 | 1013.0 |
| 20260905074000 | 73 | 14 | 0.0 | 0.0 | 0.00 | 0.28 | 0.00 | 88 | 1013.0 |
| 20260905073859 | 73 | 14 | 0.0 | 0.0 | 0.00 | 0.28 | 0.00 | 88 | 1013.0 |
| 20260905073759 | 73 | 14 | 0.0 | 0.0 | 0.00 | 0.28 | 0.00 | 88 | 1013.0 |
| 20260905073702 | 73 | 14 | 0.0 | 0.0 | 0.00 | 0.28 | 0.00 | 88 | 1013.1 |
| 20260905073600 | 73 | 14 | 0.0 | 0.0 | 0.00 | 0.28 | 0.00 | 88 | 1013.0 |
| 20260905073501 | 73 | 14 | 0.0 | 0.0 | 0.00 | 0.28 | 0.00 | 88 | 1012.9 |
| 20260905073358 | 73 | 14 | 0.0 | 0.0 | 0.00 | 0.28 | 0.00 | 88 | 1013.0 |
| 20260905073300 | 73 | 14 | 0.0 | 0.0 | 0.00 | 0.28 | 0.00 | 88 | 1013.0 |
| 20260905073200 | 73 | 14 | 0.0 | 0.0 | 0.00 | 0.28 | 0.00 | 88 | 1013.0 |
| 20260905073059 | 73 | 14 | 0.0 | 0.0 | 0.00 | 0.28 | 0.00 | 88 | 1012.9 |
| 20260905073000 | 73 | 14 | 0.0 | 0.0 | 0.00 | 0.28 | 0.00 | 88 | 1013.0 |
| 20260905072901 | 73 | 14 | 0.0 | 0.0 | 0.00 | 0.28 | 0.00 | 88 | 1013.0 |
| 20260905072759 | 73 | 14 | 0.0 | 0.0 | 0.00 | 0.28 | 0.00 | 88 | 1013.0 |
| 20260905072659 | 73 | 14 | 0.0 | 0.0 | 0.00 | 0.28 | 0.00 | 88 | 1013.0 |
| 20260905072601 | 73 | 14 | 0.0 | 0.0 | 0.00 | 0.28 | 0.00 | 88 | 1013.1 |
| 20260905072500 | 73 | 14 | 0.0 | 0.0 | 0.00 | 0.28 | 0.00 | 88 | 1013.1 |
| 20260905072400 | 73 | 14 | 0.0 | 0.0 | 0.00 | 0.28 | 0.00 | 88 | 1013.1 |
| 20260905072159 | 73 | 14 | 0.0 | 0.0 | 0.00 | 0.28 | 0.00 | 89 | 1013.0 |
| 20260905072058 | 73 | 14 | 0.0 | 0.0 | 0.00 | 0.28 | 0.00 | 89 | 1013.0 |
| 20260905071859 | 73 | 14 | 0.0 | 0.0 | 0.00 | 0.28 | 0.00 | 89 | 1012.9 |
| 20260905071759 | 73 | 14 | 0.0 | 0.0 | 0.00 | 0.28 | 0.00 | 89 | 1012.9 |
| 20260905071659 | 73 | 14 | 0.0 | 0.0 | 0.00 | 0.28 | 0.00 | 89 | 1012.9 |
| 20260905071500 | 73 | 14 | 0.0 | 0.0 | 0.00 | 0.28 | 0.00 | 89 | 1012.9 |
| 20260905071359 | 73 | 14 | 0.0 | 0.0 | 0.00 | 0.28 | 0.00 | 89 | 1012.9 |
| 20260905071300 | 73 | 14 | 0.0 | 0.0 | 0.00 | 0.28 | 0.00 | 89 | 1012.9 |
| 20260905071200 | 73 | 13 | 0.0 | 0.0 | 0.00 | 0.28 | 0.00 | 89 | 1012.9 |
| 20260905071058 | 73 | 14 | 0.0 | 0.0 | 0.00 | 0.28 | 0.00 | 89 | 1012.9 |
| 20260905070659 | 73 | 14 | 0.0 | 0.0 | 0.00 | 0.28 | 0.00 | 89 | 1013.0 |
| 20260905070559 | 73 | 14 | 0.0 | 0.0 | 0.00 | 0.28 | 0.00 | 89 | 1013.0 |
| 20260905070500 | 73 | 14 | 0.0 | 0.0 | 0.00 | 0.28 | 0.00 | 89 | 1013.0 |
| 20260905070401 | 73 | 14 | 0.0 | 0.0 | 0.00 | 0.28 | 0.00 | 89 | 1013.0 |
| 20260905070301 | 73 | 14 | 0.0 | 0.0 | 0.00 | 0.28 | 0.00 | 89 | 1013.0 |
| 20260905070101 | 73 | 14 | 0.0 | 0.0 | 0.00 | 0.28 | 0.00 | 89 | 1013.0 |
| 20260905065958 | 73 | 14 | 0.0 | 0.0 | 0.00 | 0.28 | 0.00 | 89 | 1013.0 |
| 20260905065759 | 73 | 14 | 0.0 | 0.0 | 0.00 | 0.28 | 0.00 | 89 | 1013.0 |
| 20260905065659 | 73 | 14 | 0.0 | 0.0 | 0.00 | 0.28 | 0.00 | 89 | 1013.0 |
| 20260905065600 | 73 | 14 | 0.0 | 0.0 | 0.00 | 0.28 | 0.00 | 89 | 1013.0 |
| 20260905065401 | 73 | 14 | 0.0 | 0.0 | 0.00 | 0.28 | 0.00 | 89 | 1013.1 |
| 20260905065158 | 73 | 14 | 0.0 | 0.0 | 0.00 | 0.28 | 0.00 | 89 | 1013.0 |
| 20260905065001 | 73 | 14 | 0.0 | 0.0 | 0.00 | 0.28 | 0.00 | 89 | 1013.1 |
| 20260905064859 | 73 | 14 | 0.0 | 0.0 | 0.00 | 0.28 | 0.00 | 89 | 1013.2 |
| 20260905064800 | 73 | 14 | 0.0 | 0.0 | 0.00 | 0.28 | 0.00 | 90 | 1013.1 |
| 20260905064659 | 73 | 14 | 0.0 | 0.0 | 0.00 | 0.28 | 0.00 | 89 | 1013.2 |
| 20260905064559 | 73 | 14 | 0.0 | 0.0 | 0.00 | 0.28 | 0.00 | 90 | 1013.2 |
| 20260905064459 | 73 | 14 | 0.0 | 0.0 | 0.00 | 0.28 | 0.00 | 90 | 1013.2 |
| 20260905064358 | 73 | 14 | 0.0 | 0.0 | 0.00 | 0.28 | 0.00 | 90 | 1013.3 |
| 20260905064258 | 73 | 14 | 0.0 | 0.0 | 0.00 | 0.28 | 0.00 | 90 | 1013.3 |
| 20260905064159 | 73 | 14 | 0.0 | 0.0 | 0.00 | 0.28 | 0.00 | 90 | 1013.3 |
| 20260905064058 | 73 | 14 | 0.0 | 0.0 | 0.00 | 0.28 | 0.00 | 89 | 1013.3 |
| 20260905063959 | 73 | 14 | 0.0 | 0.0 | 0.00 | 0.28 | 0.00 | 89 | 1013.3 |
| 20260905063900 | 73 | 14 | 0.0 | 0.0 | 0.00 | 0.28 | 0.00 | 89 | 1013.3 |
| 20260905063758 | 73 | 14 | 0.0 | 0.0 | 0.00 | 0.28 | 0.00 | 89 | 1013.4 |
| 20260905063700 | 73 | 14 | 0.0 | 0.0 | 0.00 | 0.28 | 0.00 | 89 | 1013.3 |
| 20260905063557 | 73 | 14 | 0.0 | 0.0 | 0.00 | 0.28 | 0.00 | 89 | 1013.4 |
| 20260905063258 | 73 | 14 | 0.0 | 0.0 | 0.00 | 0.28 | 0.00 | 90 | 1013.4 |
| 20260905063159 | 73 | 14 | 0.0 | 0.0 | 0.00 | 0.28 | 0.00 | 90 | 1013.4 |
| 20260905062958 | 73 | 14 | 0.0 | 0.0 | 0.00 | 0.28 | 0.00 | 90 | 1013.4 |
| 20260905062858 | 73 | 14 | 0.0 | 0.0 | 0.00 | 0.28 | 0.00 | 90 | 1013.5 |
| 20260905062758 | 73 | 14 | 0.0 | 0.0 | 0.00 | 0.28 | 0.00 | 90 | 1013.6 |
| 20260905062658 | 73 | 14 | 0.0 | 0.0 | 0.00 | 0.28 | 0.00 | 90 | 1013.5 |
| 20260905062558 | 73 | 14 | 0.0 | 0.0 | 0.00 | 0.28 | 0.00 | 90 | 1013.6 |
| 20260905062500 | 73 | 14 | 0.0 | 0.0 | 0.00 | 0.28 | 0.00 | 90 | 1013.6 |
| 20260905062359 | 73 | 14 | 0.0 | 0.0 | 0.00 | 0.28 | 0.00 | 90 | 1013.6 |
| 20260905062258 | 73 | 14 | 0.0 | 0.0 | 0.00 | 0.28 | 0.00 | 90 | 1013.6 |
| 20260905062158 | 73 | 14 | 0.0 | 0.0 | 0.00 | 0.28 | 0.00 | 90 | 1013.6 |
| 20260905061958 | 73 | 14 | 0.0 | 0.0 | 0.00 | 0.28 | 0.00 | 90 | 1013.6 |
| 20260905061757 | 73 | 14 | 0.0 | 0.0 | 0.00 | 0.28 | 0.00 | 90 | 1013.6 |
| 20260905061658 | 73 | 14 | 0.0 | 0.0 | 0.00 | 0.28 | 0.00 | 90 | 1013.6 |
| 20260905061559 | 73 | 14 | 0.0 | 0.0 | 0.00 | 0.28 | 0.00 | 90 | 1013.7 |
| 20260905061457 | 73 | 14 | 0.0 | 0.0 | 0.00 | 0.28 | 0.00 | 90 | 1013.6 |
| 20260905061359 | 73 | 14 | 0.0 | 0.0 | 0.00 | 0.28 | 0.00 | 90 | 1013.7 |
| 20260905061258 | 73 | 14 | 0.0 | 0.0 | 0.00 | 0.28 | 0.00 | 90 | 1013.7 |
| 20260905061159 | 73 | 13 | 0.0 | 0.0 | 0.00 | 0.28 | 0.00 | 90 | 1013.6 |
| 20260905061058 | 73 | 14 | 0.0 | 0.0 | 0.00 | 0.28 | 0.00 | 90 | 1013.7 |
| 20260905060958 | 73 | 14 | 0.0 | 0.0 | 0.00 | 0.28 | 0.00 | 90 | 1013.7 |
| 20260905060858 | 74 | 14 | 0.0 | 0.0 | 0.00 | 0.28 | 0.00 | 90 | 1013.7 |
| 20260905060758 | 74 | 14 | 0.0 | 0.0 | 0.00 | 0.28 | 0.00 | 90 | 1013.7 |
| 20260905060658 | 74 | 14 | 0.0 | 0.0 | 0.00 | 0.28 | 0.00 | 90 | 1013.7 |
| 20260905060558 | 73 | 14 | 0.0 | 0.0 | 0.00 | 0.28 | 0.00 | 90 | 1013.7 |
| 20260905060358 | 74 | 13 | 0.0 | 0.0 | 0.00 | 0.28 | 0.00 | 90 | 1013.7 |
| 20260905060258 | 74 | 14 | 0.0 | 0.0 | 0.00 | 0.28 | 0.00 | 90 | 1013.7 |
| 20260905060157 | 74 | 14 | 0.0 | 0.0 | 0.00 | 0.28 | 0.00 | 90 | 1013.7 |
| 20260905055859 | 74 | 14 | 0.0 | 0.0 | 0.00 | 0.28 | 0.00 | 90 | 1013.7 |
| 20260905055658 | 74 | 14 | 0.0 | 0.0 | 0.00 | 0.28 | 0.00 | 90 | 1013.8 |
| 20260905055559 | 74 | 14 | 0.0 | 0.0 | 0.00 | 0.28 | 0.00 | 90 | 1013.7 |
| 20260905055459 | 74 | 14 | 0.0 | 0.0 | 0.00 | 0.28 | 0.00 | 90 | 1013.7 |
| 20260905055358 | 74 | 14 | 0.0 | 0.0 | 0.00 | 0.28 | 0.00 | 90 | 1013.7 |
| 20260905055257 | 74 | 14 | 0.0 | 0.0 | 0.00 | 0.28 | 0.00 | 90 | 1013.7 |
| 20260905055157 | 74 | 14 | 0.0 | 0.0 | 0.00 | 0.28 | 0.00 | 90 | 1013.8 |
| 20260905054959 | 74 | 14 | 0.0 | 0.0 | 0.00 | 0.28 | 0.00 | 90 | 1013.8 |
| 20260905054858 | 74 | 14 | 0.0 | 0.0 | 0.00 | 0.28 | 0.00 | 90 | 1013.8 |
| 20260905054758 | 74 | 14 | 0.0 | 0.0 | 0.00 | 0.28 | 0.00 | 90 | 1013.8 |
| 20260905054658 | 74 | 14 | 0.0 | 0.0 | 0.00 | 0.28 | 0.00 | 90 | 1013.8 |
| 20260905054500 | 74 | 14 | 0.0 | 0.0 | 0.00 | 0.28 | 0.00 | 90 | 1013.8 |
| 20260905054359 | 74 | 14 | 0.0 | 0.0 | 0.00 | 0.28 | 0.00 | 90 | 1013.9 |
| 20260905054258 | 74 | 14 | 0.0 | 0.0 | 0.00 | 0.28 | 0.00 | 90 | 1013.9 |
| 20260905054159 | 74 | 14 | 0.0 | 0.0 | 0.00 | 0.28 | 0.00 | 90 | 1013.9 |
| 20260905054058 | 74 | 14 | 0.0 | 0.0 | 0.00 | 0.28 | 0.00 | 91 | 1013.9 |
| 20260905053958 | 74 | 14 | 0.0 | 0.0 | 0.00 | 0.28 | 0.00 | 91 | 1013.9 |
| 20260905053759 | 74 | 14 | 0.0 | 0.0 | 0.00 | 0.28 | 0.00 | 91 | 1013.9 |
| 20260905053557 | 74 | 14 | 0.0 | 0.0 | 0.00 | 0.28 | 0.00 | 91 | 1014.0 |
| 20260905053459 | 74 | 14 | 0.0 | 0.0 | 0.00 | 0.28 | 0.00 | 90 | 1014.0 |
| 20260905053301 | 74 | 14 | 0.0 | 0.0 | 0.00 | 0.28 | 0.00 | 90 | 1014.0 |
| 20260905053158 | 74 | 14 | 0.0 | 0.0 | 0.00 | 0.28 | 0.00 | 90 | 1014.0 |
| 20260905053059 | 74 | 14 | 0.0 | 0.0 | 0.00 | 0.28 | 0.00 | 90 | 1014.0 |
| 20260905052959 | 74 | 14 | 0.0 | 0.0 | 0.00 | 0.28 | 0.00 | 90 | 1014.1 |
| 20260905052902 | 74 | 14 | 0.0 | 0.0 | 0.00 | 0.28 | 0.00 | 90 | 1014.1 |
| 20260905052758 | 74 | 14 | 0.0 | 0.0 | 0.00 | 0.28 | 0.00 | 90 | 1014.1 |
| 20260905052659 | 74 | 14 | 0.0 | 0.0 | 0.00 | 0.28 | 0.00 | 90 | 1014.2 |
| 20260905052600 | 74 | 14 | 0.0 | 0.0 | 0.00 | 0.28 | 0.00 | 90 | 1014.3 |
| 20260905052458 | 74 | 14 | 0.0 | 0.0 | 0.00 | 0.28 | 0.00 | 90 | 1014.2 |
| 20260905052400 | 74 | 14 | 0.0 | 0.0 | 0.00 | 0.28 | 0.00 | 90 | 1014.2 |
| 20260905052258 | 74 | 14 | 0.0 | 0.0 | 0.00 | 0.28 | 0.00 | 90 | 1014.2 |
| 20260905052158 | 74 | 14 | 0.0 | 0.0 | 0.00 | 0.28 | 0.00 | 90 | 1014.2 |
| 20260905052059 | 74 | 14 | 0.0 | 0.0 | 0.00 | 0.28 | 0.00 | 90 | 1014.3 |
| 20260905051958 | 74 | 14 | 0.0 | 0.0 | 0.00 | 0.28 | 0.00 | 90 | 1014.3 |
| 20260905051900 | 74 | 14 | 0.0 | 0.0 | 0.00 | 0.28 | 0.00 | 90 | 1014.2 |
| 20260905051658 | 74 | 14 | 0.0 | 0.0 | 0.00 | 0.28 | 0.00 | 90 | 1014.3 |
| 20260905051559 | 74 | 14 | 0.0 | 0.0 | 0.00 | 0.28 | 0.00 | 90 | 1014.3 |
| 20260905051458 | 74 | 14 | 0.0 | 0.0 | 0.00 | 0.28 | 0.00 | 90 | 1014.3 |
| 20260905051258 | 74 | 14 | 0.0 | 0.0 | 0.00 | 0.28 | 0.00 | 90 | 1014.4 |
| 20260905051158 | 74 | 14 | 0.0 | 0.0 | 0.00 | 0.28 | 0.00 | 90 | 1014.3 |
| 20260905051058 | 74 | 14 | 0.0 | 0.0 | 0.00 | 0.28 | 0.00 | 90 | 1014.4 |
| 20260905050959 | 74 | 14 | 0.0 | 0.0 | 0.00 | 0.28 | 0.00 | 90 | 1014.5 |
| 20260905050858 | 74 | 14 | 0.0 | 0.0 | 0.00 | 0.28 | 0.00 | 90 | 1014.4 |
| 20260905050658 | 74 | 14 | 0.0 | 0.0 | 0.00 | 0.28 | 0.00 | 90 | 1014.4 |
| 20260905050558 | 74 | 14 | 0.0 | 0.0 | 0.00 | 0.28 | 0.00 | 90 | 1014.5 |
| 20260905050458 | 74 | 14 | 0.0 | 0.0 | 0.00 | 0.28 | 0.00 | 90 | 1014.5 |
| 20260905050358 | 74 | 14 | 0.0 | 0.0 | 0.00 | 0.28 | 0.00 | 90 | 1014.5 |
| 20260905050258 | 74 | 14 | 0.0 | 0.0 | 0.00 | 0.28 | 0.00 | 90 | 1014.6 |
| 20260905050058 | 74 | 14 | 0.0 | 0.0 | 0.00 | 0.28 | 0.00 | 90 | 1014.5 |
| 20260905050000 | 74 | 14 | 0.0 | 0.0 | 0.00 | 0.28 | 0.00 | 90 | 1014.5 |
| 20260905045757 | 74 | 14 | 0.0 | 0.0 | 0.00 | 0.28 | 0.00 | 90 | 1014.5 |
| 20260905045659 | 74 | 14 | 0.0 | 0.0 | 0.00 | 0.28 | 0.00 | 90 | 1014.5 |
| 20260905045558 | 74 | 14 | 0.0 | 0.0 | 0.00 | 0.28 | 0.00 | 90 | 1014.5 |
| 20260905045459 | 74 | 14 | 0.0 | 0.0 | 0.00 | 0.28 | 0.00 | 90 | 1014.5 |
| 20260905045358 | 74 | 14 | 0.0 | 0.0 | 0.00 | 0.28 | 0.00 | 90 | 1014.5 |
| 20260905045257 | 74 | 14 | 0.0 | 0.0 | 0.00 | 0.28 | 0.00 | 90 | 1014.5 |
| 20260905045058 | 74 | 14 | 0.0 | 0.0 | 0.00 | 0.28 | 0.00 | 90 | 1014.5 |
| 20260905044759 | 74 | 14 | 0.0 | 0.0 | 0.00 | 0.28 | 0.00 | 90 | 1014.5 |
| 20260905044657 | 74 | 14 | 0.0 | 0.0 | 0.00 | 0.28 | 0.00 | 90 | 1014.5 |
| 20260905044559 | 74 | 14 | 0.0 | 0.0 | 0.00 | 0.28 | 0.00 | 90 | 1014.5 |
| 20260905044502 | 74 | 14 | 0.0 | 0.0 | 0.00 | 0.28 | 0.00 | 89 | 1014.5 |
| 20260905044357 | 74 | 14 | 0.0 | 0.0 | 0.00 | 0.28 | 0.00 | 89 | 1014.5 |
| 20260905044258 | 74 | 14 | 0.0 | 0.0 | 0.00 | 0.28 | 0.00 | 89 | 1014.5 |
| 20260905044158 | 74 | 14 | 0.0 | 0.0 | 0.00 | 0.28 | 0.00 | 90 | 1014.5 |
| 20260905044058 | 74 | 14 | 0.0 | 0.0 | 0.00 | 0.28 | 0.00 | 90 | 1014.5 |
| 20260905043957 | 74 | 14 | 0.0 | 0.0 | 0.00 | 0.28 | 0.00 | 90 | 1014.4 |
| 20260905043858 | 74 | 14 | 0.0 | 0.0 | 0.00 | 0.28 | 0.00 | 90 | 1014.5 |
| 20260905043757 | 74 | 14 | 0.0 | 0.0 | 0.00 | 0.28 | 0.00 | 89 | 1014.4 |
| 20260905043658 | 74 | 14 | 0.0 | 0.0 | 0.00 | 0.28 | 0.00 | 89 | 1014.4 |
| 20260905043457 | 74 | 14 | 0.0 | 0.0 | 0.00 | 0.28 | 0.00 | 90 | 1014.4 |
| 20260905043358 | 74 | 14 | 0.0 | 0.0 | 0.00 | 0.28 | 0.00 | 90 | 1014.4 |
| 20260905043300 | 74 | 14 | 0.0 | 0.0 | 0.00 | 0.28 | 0.00 | 90 | 1014.4 |
| 20260905042900 | 75 | 14 | 0.0 | 0.0 | 0.00 | 0.28 | 0.00 | 89 | 1014.4 |
| 20260905042800 | 75 | 14 | 0.0 | 0.0 | 0.00 | 0.28 | 0.00 | 89 | 1014.3 |
| 20260905042701 | 75 | 14 | 0.0 | 0.0 | 0.00 | 0.28 | 0.00 | 89 | 1014.4 |
| 20260905042600 | 75 | 14 | 0.0 | 0.0 | 0.00 | 0.28 | 0.00 | 89 | 1014.4 |
| 20260905042502 | 75 | 14 | 0.0 | 0.0 | 0.00 | 0.28 | 0.00 | 89 | 1014.4 |
| 20260905042301 | 75 | 14 | 0.0 | 0.0 | 0.00 | 0.28 | 0.00 | 89 | 1014.4 |
| 20260905041900 | 75 | 14 | 0.0 | 0.0 | 0.00 | 0.28 | 0.00 | 89 | 1014.5 |
| 20260905041601 | 75 | 14 | 0.0 | 0.0 | 0.00 | 0.28 | 0.00 | 89 | 1014.5 |
| 20260905041501 | 75 | 14 | 0.0 | 0.0 | 0.00 | 0.28 | 0.00 | 89 | 1014.5 |
| 20260905041401 | 75 | 14 | 0.0 | 0.0 | 0.00 | 0.28 | 0.00 | 89 | 1014.5 |
| 20260905041203 | 75 | 14 | 0.0 | 0.0 | 0.00 | 0.28 | 0.00 | 89 | 1014.4 |
| 20260905041100 | 75 | 14 | 0.0 | 0.0 | 0.00 | 0.28 | 0.00 | 89 | 1014.4 |
| 20260905040901 | 75 | 14 | 0.0 | 0.0 | 0.00 | 0.28 | 0.00 | 89 | 1014.4 |
| 20260905040801 | 75 | 14 | 0.0 | 0.0 | 0.00 | 0.28 | 0.00 | 89 | 1014.4 |
| 20260905040702 | 75 | 14 | 0.0 | 0.0 | 0.00 | 0.28 | 0.00 | 89 | 1014.4 |
| 20260905040602 | 75 | 14 | 0.0 | 0.0 | 0.00 | 0.28 | 0.00 | 89 | 1014.4 |
| 20260905040459 | 75 | 14 | 0.0 | 0.0 | 0.00 | 0.28 | 0.00 | 89 | 1014.3 |
| 20260905040200 | 75 | 13 | 0.0 | 0.0 | 0.00 | 0.28 | 0.00 | 89 | 1014.4 |
| 20260905040001 | 75 | 14 | 0.0 | 0.0 | 0.00 | 0.28 | 0.28 | 89 | 1014.4 |
| 20260905035859 | 75 | 14 | 0.0 | 0.0 | 0.00 | 0.28 | 0.28 | 89 | 1014.3 |
| 20260905035701 | 75 | 14 | 0.0 | 0.0 | 0.00 | 0.28 | 0.28 | 89 | 1014.4 |
| 20260905035500 | 75 | 14 | 0.0 | 0.0 | 0.00 | 0.28 | 0.28 | 89 | 1014.4 |
| 20260905035400 | 75 | 14 | 0.0 | 0.0 | 0.00 | 0.28 | 0.28 | 89 | 1014.4 |
| 20260905035159 | 75 | 14 | 0.0 | 0.0 | 0.00 | 0.28 | 0.28 | 89 | 1014.4 |
| 20260905035000 | 75 | 13 | 0.0 | 0.0 | 0.00 | 0.28 | 0.28 | 89 | 1014.3 |
| 20260905034802 | 75 | 14 | 0.0 | 0.0 | 0.00 | 0.28 | 0.28 | 89 | 1014.4 |
| 20260905034659 | 75 | 14 | 0.0 | 0.0 | 0.00 | 0.28 | 0.28 | 89 | 1014.4 |
| 20260905034600 | 75 | 14 | 0.0 | 0.0 | 0.00 | 0.28 | 0.28 | 89 | 1014.4 |
| 20260905034459 | 75 | 14 | 0.0 | 0.0 | 0.00 | 0.28 | 0.28 | 89 | 1014.5 |
| 20260905034400 | 75 | 14 | 0.0 | 0.0 | 0.00 | 0.28 | 0.28 | 89 | 1014.5 |
| 20260905034301 | 75 | 14 | 0.0 | 0.0 | 0.00 | 0.28 | 0.28 | 89 | 1014.5 |
| 20260905034159 | 75 | 14 | 0.0 | 0.0 | 0.00 | 0.28 | 0.28 | 89 | 1014.5 |
| 20260905034059 | 75 | 14 | 0.0 | 0.0 | 0.00 | 0.28 | 0.28 | 89 | 1014.5 |
| 20260905033959 | 75 | 14 | 0.0 | 0.0 | 0.00 | 0.28 | 0.28 | 89 | 1014.5 |
| 20260905033859 | 75 | 14 | 0.0 | 0.0 | 0.00 | 0.28 | 0.28 | 89 | 1014.5 |
| 20260905033759 | 75 | 14 | 0.0 | 0.0 | 0.00 | 0.28 | 0.28 | 89 | 1014.5 |
| 20260905033700 | 75 | 14 | 0.0 | 0.0 | 0.00 | 0.28 | 0.28 | 89 | 1014.4 |
| 20260905033600 | 75 | 14 | 0.0 | 0.0 | 0.00 | 0.28 | 0.28 | 89 | 1014.4 |
| 20260905033500 | 75 | 14 | 0.0 | 0.0 | 0.00 | 0.28 | 0.28 | 89 | 1014.5 |
| 20260905033400 | 75 | 14 | 0.0 | 0.0 | 0.00 | 0.28 | 0.28 | 89 | 1014.5 |
| 20260905033259 | 75 | 14 | 0.0 | 0.0 | 0.00 | 0.28 | 0.28 | 89 | 1014.4 |
| 20260905033200 | 75 | 14 | 0.0 | 0.0 | 0.00 | 0.28 | 0.28 | 89 | 1014.5 |
| 20260905033000 | 75 | 14 | 0.0 | 0.0 | 0.00 | 0.28 | 0.28 | 88 | 1014.4 |
| 20260905032900 | 75 | 14 | 0.0 | 0.0 | 0.00 | 0.28 | 0.28 | 88 | 1014.5 |
| 20260905032759 | 75 | 14 | 0.0 | 0.0 | 0.00 | 0.28 | 0.28 | 89 | 1014.4 |
| 20260905032700 | 75 | 14 | 0.0 | 0.0 | 0.00 | 0.28 | 0.28 | 89 | 1014.4 |
| 20260905032602 | 75 | 14 | 0.0 | 0.0 | 0.00 | 0.28 | 0.28 | 89 | 1014.4 |
| 20260905032459 | 75 | 14 | 0.0 | 0.0 | 0.00 | 0.28 | 0.28 | 89 | 1014.4 |
| 20260905032400 | 75 | 14 | 0.0 | 0.0 | 0.00 | 0.28 | 0.28 | 89 | 1014.4 |
| 20260905032259 | 75 | 12 | 0.0 | 0.0 | 0.00 | 0.28 | 0.28 | 89 | 1014.3 |
| 20260905032200 | 75 | 12 | 0.0 | 0.0 | 0.00 | 0.28 | 0.28 | 89 | 1014.3 |
| 20260905032100 | 75 | 12 | 0.0 | 0.0 | 0.00 | 0.28 | 0.28 | 89 | 1014.3 |
| 20260905032001 | 75 | 12 | 0.0 | 0.0 | 0.00 | 0.28 | 0.28 | 89 | 1014.3 |
| 20260905031801 | 75 | 12 | 0.0 | 0.0 | 0.00 | 0.28 | 0.28 | 88 | 1014.4 |
| 20260905031659 | 75 | 12 | 0.0 | 0.0 | 0.00 | 0.28 | 0.28 | 88 | 1014.3 |
| 20260905031600 | 75 | 12 | 0.0 | 0.0 | 0.00 | 0.28 | 0.28 | 88 | 1014.3 |
| 20260905031401 | 75 | 12 | 0.0 | 0.0 | 0.00 | 0.28 | 0.28 | 88 | 1014.3 |
| 20260905031259 | 75 | 12 | 0.0 | 0.0 | 0.00 | 0.28 | 0.28 | 88 | 1014.2 |
| 20260905031159 | 75 | 12 | 0.0 | 0.0 | 0.00 | 0.28 | 0.28 | 88 | 1014.3 |
| 20260905031059 | 75 | 12 | 0.0 | 0.0 | 0.00 | 0.28 | 0.28 | 88 | 1014.3 |
| 20260905030959 | 75 | 12 | 0.0 | 0.0 | 0.00 | 0.28 | 0.28 | 88 | 1014.3 |
| 20260905030901 | 75 | 12 | 0.0 | 0.0 | 0.00 | 0.28 | 0.28 | 88 | 1014.3 |
| 20260905030801 | 75 | 12 | 0.0 | 0.0 | 0.00 | 0.28 | 0.28 | 88 | 1014.3 |
| 20260905030400 | 75 | 12 | 0.0 | 0.0 | 0.00 | 0.28 | 0.28 | 88 | 1014.3 |
| 20260905030300 | 75 | 12 | 0.0 | 0.0 | 0.00 | 0.28 | 0.28 | 88 | 1014.4 |
| 20260905030200 | 75 | 12 | 0.0 | 0.0 | 0.00 | 0.28 | 0.28 | 88 | 1014.3 |
| 20260905030100 | 75 | 12 | 0.0 | 0.0 | 0.00 | 0.28 | 0.28 | 88 | 1014.4 |
| 20260905030002 | 75 | 12 | 0.0 | 0.0 | 0.00 | 0.28 | 0.28 | 88 | 1014.3 |
| 20260905025900 | 75 | 12 | 0.0 | 0.0 | 0.00 | 0.28 | 0.28 | 88 | 1014.4 |
| 20260905025801 | 75 | 12 | 0.0 | 0.0 | 0.00 | 0.28 | 0.28 | 88 | 1014.4 |
| 20260905025659 | 75 | 12 | 0.0 | 0.0 | 0.00 | 0.28 | 0.28 | 88 | 1014.4 |
| 20260905025600 | 75 | 12 | 0.0 | 0.0 | 0.00 | 0.28 | 0.28 | 88 | 1014.3 |
| 20260905025301 | 75 | 12 | 0.0 | 0.0 | 0.00 | 0.28 | 0.28 | 88 | 1014.3 |
| 20260905025200 | 75 | 12 | 0.0 | 0.0 | 0.00 | 0.28 | 0.28 | 88 | 1014.3 |
| 20260905025059 | 75 | 12 | 0.0 | 0.0 | 0.00 | 0.28 | 0.28 | 87 | 1014.4 |
| 20260905025000 | 75 | 12 | 0.0 | 0.0 | 0.00 | 0.28 | 0.28 | 87 | 1014.3 |
| 20260905024900 | 75 | 12 | 0.0 | 0.0 | 0.00 | 0.28 | 0.28 | 87 | 1014.4 |
| 20260905024802 | 75 | 12 | 0.0 | 0.0 | 0.00 | 0.28 | 0.28 | 87 | 1014.4 |
| 20260905024701 | 75 | 12 | 0.0 | 0.0 | 0.00 | 0.28 | 0.28 | 87 | 1014.3 |
| 20260905024600 | 76 | 12 | 0.0 | 0.0 | 0.00 | 0.28 | 0.28 | 87 | 1014.4 |
| 20260905024500 | 75 | 12 | 0.0 | 0.0 | 0.00 | 0.28 | 0.28 | 87 | 1014.4 |
| 20260905024300 | 75 | 12 | 0.0 | 0.0 | 0.00 | 0.28 | 0.28 | 87 | 1014.4 |
| 20260905024101 | 75 | 12 | 0.0 | 0.0 | 0.00 | 0.28 | 0.28 | 87 | 1014.5 |
| 20260905023859 | 75 | 12 | 0.0 | 0.0 | 0.00 | 0.28 | 0.28 | 87 | 1014.4 |
| 20260905023800 | 75 | 12 | 0.0 | 0.0 | 0.00 | 0.28 | 0.28 | 87 | 1014.4 |
| 20260905023701 | 75 | 12 | 0.0 | 0.0 | 0.00 | 0.28 | 0.28 | 87 | 1014.4 |
| 20260905023600 | 75 | 12 | 0.0 | 0.0 | 0.00 | 0.28 | 0.28 | 87 | 1014.4 |
| 20260905023504 | 75 | 12 | 0.0 | 0.0 | 0.00 | 0.28 | 0.28 | 87 | 1014.4 |
| 20260905023400 | 76 | 12 | 0.0 | 0.0 | 0.00 | 0.28 | 0.28 | 87 | 1014.4 |
| 20260905023300 | 76 | 12 | 0.0 | 0.0 | 0.00 | 0.28 | 0.28 | 87 | 1014.4 |
| 20260905023200 | 76 | 12 | 0.0 | 0.0 | 0.00 | 0.28 | 0.28 | 87 | 1014.4 |
| 20260905023100 | 76 | 12 | 0.0 | 0.0 | 0.00 | 0.28 | 0.28 | 87 | 1014.4 |
| 20260905022859 | 76 | 12 | 0.0 | 0.0 | 0.00 | 0.28 | 0.28 | 87 | 1014.4 |
| 20260905022759 | 76 | 12 | 0.0 | 0.0 | 0.00 | 0.28 | 0.28 | 87 | 1014.4 |
| 20260905022700 | 76 | 12 | 0.0 | 0.0 | 0.00 | 0.28 | 0.28 | 87 | 1014.4 |
| 20260905022600 | 75 | 12 | 0.0 | 0.0 | 0.00 | 0.28 | 0.28 | 87 | 1014.4 |
| 20260905022401 | 76 | 12 | 0.0 | 0.0 | 0.00 | 0.28 | 0.28 | 87 | 1014.4 |
| 20260905022301 | 76 | 12 | 0.0 | 0.0 | 0.00 | 0.28 | 0.28 | 87 | 1014.4 |
| 20260905022100 | 76 | 12 | 0.0 | 0.0 | 0.00 | 0.28 | 0.28 | 87 | 1014.4 |
| 20260905022000 | 76 | 12 | 0.0 | 0.0 | 0.00 | 0.28 | 0.28 | 88 | 1014.3 |
| 20260905021904 | 76 | 12 | 0.0 | 0.0 | 0.00 | 0.28 | 0.28 | 88 | 1014.4 |
| 20260905021801 | 76 | 12 | 0.0 | 0.0 | 0.00 | 0.28 | 0.28 | 88 | 1014.4 |
| 20260905021600 | 76 | 12 | 0.0 | 0.0 | 0.00 | 0.28 | 0.28 | 87 | 1014.3 |
| 20260905021502 | 76 | 12 | 0.0 | 0.0 | 0.00 | 0.28 | 0.28 | 87 | 1014.4 |
| 20260905021400 | 76 | 12 | 0.0 | 0.0 | 0.00 | 0.28 | 0.28 | 87 | 1014.4 |
| 20260905021301 | 76 | 12 | 0.0 | 0.0 | 0.00 | 0.28 | 0.28 | 87 | 1014.3 |
| 20260905021200 | 76 | 12 | 0.0 | 0.0 | 0.00 | 0.28 | 0.28 | 87 | 1014.3 |
| 20260905021103 | 76 | 12 | 0.0 | 0.0 | 0.00 | 0.28 | 0.28 | 87 | 1014.3 |
| 20260905021001 | 76 | 12 | 0.0 | 0.0 | 0.00 | 0.28 | 0.28 | 87 | 1014.3 |
| 20260905020800 | 76 | 12 | 0.0 | 0.0 | 0.00 | 0.28 | 0.28 | 87 | 1014.3 |
| 20260905020700 | 76 | 12 | 0.0 | 0.0 | 0.00 | 0.28 | 0.28 | 87 | 1014.4 |
| 20260905020600 | 76 | 12 | 0.0 | 0.0 | 0.00 | 0.28 | 0.28 | 87 | 1014.3 |
| 20260905020459 | 76 | 12 | 0.0 | 0.0 | 0.00 | 0.28 | 0.28 | 87 | 1014.3 |
| 20260905020400 | 76 | 12 | 0.0 | 0.0 | 0.00 | 0.28 | 0.28 | 87 | 1014.3 |
| 20260905020300 | 76 | 12 | 0.0 | 0.0 | 0.00 | 0.28 | 0.28 | 87 | 1014.3 |
| 20260905020200 | 76 | 12 | 0.0 | 0.0 | 0.00 | 0.28 | 0.28 | 87 | 1014.3 |
| 20260905020100 | 76 | 12 | 0.0 | 0.0 | 0.00 | 0.28 | 0.28 | 87 | 1014.3 |
| 20260905020003 | 76 | 12 | 0.0 | 0.0 | 0.00 | 0.28 | 0.28 | 87 | 1014.3 |
| 20260905015859 | 76 | 12 | 0.0 | 0.0 | 0.00 | 0.28 | 0.28 | 87 | 1014.3 |
| 20260905015801 | 76 | 12 | 0.0 | 0.0 | 0.00 | 0.28 | 0.28 | 87 | 1014.3 |
| 20260905015601 | 76 | 12 | 0.0 | 0.0 | 0.00 | 0.28 | 0.28 | 87 | 1014.3 |
| 20260905015400 | 76 | 12 | 0.0 | 0.0 | 0.00 | 0.28 | 0.28 | 87 | 1014.3 |
| 20260905015259 | 76 | 12 | 0.0 | 0.0 | 0.00 | 0.28 | 0.28 | 87 | 1014.4 |
| 20260905015200 | 76 | 12 | 0.0 | 0.0 | 0.00 | 0.28 | 0.28 | 87 | 1014.3 |
| 20260905015101 | 76 | 12 | 0.0 | 0.0 | 0.00 | 0.28 | 0.28 | 87 | 1014.3 |
| 20260905014959 | 76 | 12 | 0.0 | 0.0 | 0.00 | 0.28 | 0.28 | 87 | 1014.3 |
| 20260905014900 | 76 | 12 | 0.0 | 0.0 | 0.00 | 0.28 | 0.28 | 87 | 1014.3 |
| 20260905014800 | 76 | 12 | 0.0 | 0.0 | 0.00 | 0.28 | 0.28 | 87 | 1014.2 |
| 20260905014700 | 76 | 12 | 0.0 | 0.0 | 0.00 | 0.28 | 0.28 | 87 | 1014.3 |
| 20260905014600 | 76 | 12 | 0.0 | 0.0 | 0.00 | 0.28 | 0.28 | 87 | 1014.2 |
| 20260905014400 | 76 | 12 | 0.0 | 0.0 | 0.00 | 0.28 | 0.28 | 87 | 1014.3 |
| 20260905014300 | 76 | 12 | 0.0 | 0.0 | 0.00 | 0.28 | 0.28 | 87 | 1014.3 |
| 20260905014200 | 76 | 12 | 0.0 | 0.0 | 0.00 | 0.28 | 0.28 | 87 | 1014.3 |
| 20260905014002 | 76 | 12 | 0.0 | 0.0 | 0.00 | 0.28 | 0.28 | 87 | 1014.3 |
| 20260905013900 | 76 | 12 | 0.0 | 0.0 | 0.00 | 0.28 | 0.28 | 87 | 1014.3 |
| 20260905013801 | 76 | 12 | 0.0 | 0.0 | 0.00 | 0.28 | 0.28 | 87 | 1014.3 |
| 20260905013600 | 76 | 12 | 0.0 | 0.0 | 0.00 | 0.28 | 0.28 | 87 | 1014.3 |
| 20260905013459 | 76 | 12 | 0.0 | 0.0 | 0.00 | 0.28 | 0.28 | 87 | 1014.2 |
| 20260905013400 | 76 | 12 | 0.0 | 0.0 | 0.00 | 0.28 | 0.28 | 87 | 1014.3 |
| 20260905013201 | 76 | 12 | 0.0 | 0.0 | 0.00 | 0.28 | 0.28 | 87 | 1014.3 |
| 20260905013002 | 76 | 12 | 0.0 | 0.0 | 0.00 | 0.28 | 0.28 | 87 | 1014.2 |
| 20260905012900 | 76 | 12 | 0.0 | 0.0 | 0.00 | 0.28 | 0.28 | 87 | 1014.2 |
| 20260905012759 | 76 | 12 | 0.0 | 0.0 | 0.00 | 0.28 | 0.28 | 87 | 1014.1 |
| 20260905012700 | 76 | 12 | 0.0 | 0.0 | 0.00 | 0.28 | 0.28 | 87 | 1014.0 |
| 20260905012600 | 76 | 12 | 0.0 | 0.0 | 0.00 | 0.28 | 0.28 | 87 | 1014.0 |
| 20260905012502 | 76 | 12 | 0.0 | 0.0 | 0.00 | 0.28 | 0.28 | 87 | 1014.0 |
| 20260905012400 | 76 | 12 | 0.0 | 0.0 | 0.00 | 0.28 | 0.28 | 87 | 1013.9 |
| 20260905012300 | 76 | 12 | 0.0 | 0.0 | 0.00 | 0.28 | 0.28 | 87 | 1013.9 |
| 20260905012201 | 76 | 12 | 0.0 | 0.0 | 0.00 | 0.28 | 0.28 | 87 | 1013.9 |
| 20260905011959 | 76 | 12 | 0.0 | 0.0 | 0.00 | 0.28 | 0.28 | 86 | 1013.8 |
| 20260905011901 | 76 | 12 | 0.0 | 0.0 | 0.00 | 0.28 | 0.28 | 86 | 1013.9 |
| 20260905011800 | 76 | 12 | 0.0 | 0.0 | 0.00 | 0.28 | 0.28 | 86 | 1013.9 |
| 20260905011701 | 76 | 12 | 0.0 | 0.0 | 0.00 | 0.28 | 0.28 | 86 | 1013.9 |
| 20260905011600 | 76 | 12 | 0.0 | 0.0 | 0.00 | 0.28 | 0.28 | 86 | 1013.9 |
| 20260905011459 | 76 | 12 | 0.0 | 0.0 | 0.00 | 0.28 | 0.28 | 86 | 1013.9 |
| 20260905011359 | 76 | 12 | 0.0 | 0.0 | 0.00 | 0.28 | 0.28 | 86 | 1013.9 |
| 20260905011201 | 76 | 12 | 0.0 | 0.0 | 0.00 | 0.28 | 0.28 | 86 | 1013.9 |
| 20260905011100 | 76 | 12 | 0.0 | 0.0 | 0.00 | 0.28 | 0.28 | 86 | 1013.9 |
| 20260905011000 | 76 | 12 | 0.0 | 0.0 | 0.00 | 0.28 | 0.28 | 86 | 1013.9 |
| 20260905010900 | 76 | 12 | 0.0 | 0.0 | 0.00 | 0.28 | 0.28 | 86 | 1014.0 |
| 20260905010802 | 76 | 12 | 0.0 | 0.0 | 0.00 | 0.28 | 0.28 | 86 | 1013.9 |
| 20260905010700 | 76 | 12 | 0.0 | 0.0 | 0.00 | 0.28 | 0.28 | 86 | 1013.9 |
| 20260905010501 | 76 | 12 | 0.0 | 0.0 | 0.00 | 0.28 | 0.28 | 86 | 1014.0 |
| 20260905010400 | 76 | 12 | 0.0 | 0.0 | 0.00 | 0.28 | 0.28 | 86 | 1014.0 |
| 20260905010301 | 76 | 12 | 0.0 | 0.0 | 0.00 | 0.28 | 0.28 | 86 | 1014.0 |
| 20260905010002 | 76 | 12 | 0.0 | 0.0 | 0.00 | 0.28 | 0.28 | 86 | 1014.2 |
| 20260905005900 | 76 | 12 | 0.0 | 0.0 | 0.00 | 0.28 | 0.28 | 86 | 1014.1 |
| 20260905005800 | 76 | 12 | 0.0 | 0.0 | 0.00 | 0.28 | 0.28 | 86 | 1014.2 |
| 20260905005700 | 76 | 12 | 0.0 | 0.0 | 0.00 | 0.28 | 0.28 | 86 | 1014.1 |
| 20260905005601 | 76 | 12 | 0.0 | 0.0 | 0.00 | 0.28 | 0.28 | 85 | 1014.2 |
| 20260905005500 | 76 | 12 | 0.0 | 0.0 | 0.00 | 0.28 | 0.28 | 85 | 1014.2 |
| 20260905005401 | 76 | 12 | 0.0 | 0.0 | 0.00 | 0.28 | 0.28 | 85 | 1014.2 |
| 20260905005259 | 76 | 12 | 0.0 | 0.0 | 0.00 | 0.28 | 0.28 | 85 | 1014.1 |
| 20260905005200 | 76 | 12 | 0.0 | 0.0 | 0.00 | 0.28 | 0.28 | 85 | 1014.1 |
| 20260905005102 | 76 | 12 | 0.0 | 0.0 | 0.00 | 0.28 | 0.28 | 85 | 1014.0 |
| 20260905004900 | 76 | 12 | 0.0 | 0.0 | 0.00 | 0.28 | 0.28 | 85 | 1014.0 |
| 20260905004801 | 76 | 12 | 0.0 | 0.0 | 0.00 | 0.28 | 0.28 | 85 | 1014.0 |
| 20260905004600 | 76 | 12 | 0.0 | 0.0 | 0.00 | 0.28 | 0.28 | 85 | 1013.9 |
| 20260905004500 | 76 | 12 | 0.0 | 0.0 | 0.00 | 0.28 | 0.28 | 85 | 1013.9 |
| 20260905004259 | 77 | 12 | 0.0 | 1.0 | 0.00 | 0.28 | 0.28 | 85 | 1013.9 |
| 20260905004100 | 77 | 12 | 0.0 | 1.0 | 0.00 | 0.28 | 0.28 | 85 | 1013.9 |
| 20260905004000 | 77 | 12 | 0.0 | 1.0 | 0.00 | 0.28 | 0.28 | 85 | 1013.9 |
| 20260905003801 | 77 | 12 | 0.0 | 1.0 | 0.00 | 0.28 | 0.28 | 85 | 1014.0 |
| 20260905003700 | 77 | 12 | 0.0 | 1.0 | 0.00 | 0.28 | 0.28 | 85 | 1014.0 |
| 20260905003601 | 77 | 12 | 0.0 | 1.0 | 0.00 | 0.28 | 0.28 | 85 | 1014.0 |
| 20260905003459 | 77 | 12 | 0.0 | 1.0 | 0.00 | 0.28 | 0.28 | 85 | 1014.0 |
| 20260905003400 | 77 | 12 | 0.0 | 0.0 | 0.00 | 0.28 | 0.28 | 85 | 1014.0 |
| 20260905003303 | 77 | 12 | 0.0 | 0.0 | 0.00 | 0.28 | 0.28 | 85 | 1014.0 |
| 20260905003200 | 77 | 12 | 0.0 | 0.0 | 0.00 | 0.28 | 0.28 | 86 | 1014.0 |
| 20260905003000 | 77 | 12 | 0.0 | 0.0 | 0.00 | 0.28 | 0.28 | 86 | 1014.0 |
| 20260905002900 | 77 | 12 | 0.0 | 0.0 | 0.00 | 0.28 | 0.28 | 86 | 1014.0 |
| 20260905002800 | 77 | 12 | 0.0 | 0.0 | 0.00 | 0.28 | 0.28 | 86 | 1014.0 |
| 20260905002701 | 77 | 12 | 0.0 | 0.0 | 0.00 | 0.28 | 0.28 | 86 | 1014.0 |
| 20260905002459 | 77 | 12 | 0.0 | 0.0 | 0.00 | 0.28 | 0.28 | 86 | 1014.1 |
| 20260905002401 | 77 | 12 | 0.0 | 0.0 | 0.00 | 0.28 | 0.28 | 86 | 1014.2 |
| 20260905002100 | 77 | 12 | 0.0 | 0.0 | 0.00 | 0.28 | 0.28 | 86 | 1014.1 |
| 20260905002001 | 77 | 12 | 0.0 | 0.0 | 0.00 | 0.28 | 0.28 | 86 | 1014.0 |
| 20260905001901 | 77 | 12 | 0.0 | 0.0 | 0.00 | 0.28 | 0.28 | 86 | 1014.0 |
| 20260905001800 | 77 | 12 | 0.0 | 0.0 | 0.00 | 0.28 | 0.28 | 86 | 1014.0 |
| 20260905001700 | 77 | 12 | 0.0 | 0.0 | 0.00 | 0.28 | 0.28 | 86 | 1013.9 |
| 20260905001600 | 77 | 12 | 0.0 | 0.0 | 0.00 | 0.28 | 0.28 | 86 | 1014.0 |
| 20260905001400 | 77 | 12 | 0.0 | 0.0 | 0.00 | 0.28 | 0.28 | 86 | 1013.9 |
| 20260905001301 | 77 | 12 | 0.0 | 0.0 | 0.00 | 0.28 | 0.28 | 86 | 1013.8 |
| 20260905001200 | 77 | 12 | 0.0 | 0.0 | 0.00 | 0.28 | 0.28 | 85 | 1013.8 |
| 20260905001103 | 77 | 12 | 0.0 | 0.0 | 0.00 | 0.28 | 0.28 | 85 | 1013.9 |
| 20260905000802 | 78 | 12 | 0.0 | 0.0 | 0.00 | 0.28 | 0.28 | 85 | 1013.9 |
| 20260905000700 | 78 | 12 | 0.0 | 0.0 | 0.00 | 0.28 | 0.28 | 85 | 1014.0 |
| 20260905000600 | 78 | 12 | 0.0 | 0.0 | 0.00 | 0.28 | 0.28 | 85 | 1014.0 |
| 20260905000300 | 78 | 12 | 0.0 | 2.0 | 0.00 | 0.28 | 0.28 | 84 | 1013.9 |
| 20260905000200 | 78 | 12 | 0.0 | 2.0 | 0.00 | 0.28 | 0.28 | 84 | 1013.9 |
| 20260905000100 | 78 | 12 | 0.0 | 2.0 | 0.00 | 0.28 | 0.28 | 84 | 1013.9 |
| 20260904235959 | 78 | 12 | 0.0 | 2.0 | 0.00 | 0.28 | 0.28 | 84 | 1013.9 |
| 20260904235901 | 78 | 12 | 0.0 | 2.0 | 0.00 | 0.28 | 0.28 | 84 | 1013.9 |
| 20260904235802 | 78 | 12 | 0.0 | 2.0 | 0.00 | 0.28 | 0.28 | 84 | 1013.8 |
| 20260904235701 | 78 | 12 | 0.0 | 2.0 | 0.00 | 0.28 | 0.28 | 84 | 1013.9 |
| 20260904235500 | 78 | 12 | 0.0 | 2.0 | 0.00 | 0.28 | 0.28 | 84 | 1013.8 |
| 20260904235400 | 78 | 16 | 1.0 | 2.0 | 0.00 | 0.28 | 0.28 | 84 | 1013.8 |
| 20260904235300 | 78 | 13 | 2.0 | 2.0 | 0.00 | 0.28 | 0.28 | 84 | 1013.8 |
| 20260904235100 | 78 | 5 | 1.0 | 2.0 | 0.00 | 0.28 | 0.28 | 84 | 1013.9 |
| 20260904235000 | 78 | 5 | 1.0 | 1.0 | 0.00 | 0.28 | 0.28 | 85 | 1013.8 |
| 20260904234901 | 78 | 5 | 0.0 | 1.0 | 0.00 | 0.28 | 0.28 | 85 | 1013.8 |
| 20260904234759 | 78 | 5 | 0.0 | 1.0 | 0.00 | 0.28 | 0.28 | 85 | 1013.8 |
| 20260904234702 | 78 | 5 | 0.0 | 1.0 | 0.00 | 0.28 | 0.28 | 85 | 1013.8 |
| 20260904234600 | 78 | 5 | 0.0 | 1.0 | 0.00 | 0.28 | 0.28 | 84 | 1013.8 |
| 20260904234459 | 78 | 5 | 0.0 | 2.0 | 0.00 | 0.28 | 0.28 | 84 | 1013.8 |
| 20260904234300 | 78 | 5 | 0.0 | 2.0 | 0.00 | 0.28 | 0.28 | 83 | 1013.9 |
| 20260904234200 | 78 | 5 | 0.0 | 2.0 | 0.00 | 0.28 | 0.28 | 83 | 1013.8 |
| 20260904234100 | 78 | 5 | 0.0 | 3.0 | 0.00 | 0.28 | 0.28 | 83 | 1013.8 |
| 20260904234001 | 78 | 5 | 0.0 | 3.0 | 0.00 | 0.28 | 0.28 | 84 | 1013.9 |
| 20260904233900 | 78 | 5 | 0.0 | 3.0 | 0.00 | 0.28 | 0.28 | 83 | 1013.9 |
| 20260904233759 | 78 | 5 | 0.0 | 3.0 | 0.00 | 0.28 | 0.28 | 83 | 1013.9 |
| 20260904233700 | 78 | 5 | 0.0 | 3.0 | 0.00 | 0.28 | 0.28 | 83 | 1013.9 |
| 20260904233602 | 78 | 5 | 1.0 | 3.0 | 0.00 | 0.28 | 0.28 | 83 | 1014.0 |
| 20260904233300 | 78 | 348 | 2.0 | 3.0 | 0.00 | 0.28 | 0.28 | 83 | 1014.1 |
| 20260904233100 | 78 | 11 | 2.0 | 3.0 | 0.00 | 0.28 | 0.28 | 83 | 1014.0 |
| 20260904233000 | 79 | 11 | 2.0 | 4.0 | 0.00 | 0.28 | 0.28 | 83 | 1013.9 |
| 20260904232900 | 78 | 317 | 0.0 | 4.0 | 0.00 | 0.28 | 0.28 | 83 | 1013.9 |
| 20260904232800 | 78 | 317 | 0.0 | 4.0 | 0.00 | 0.28 | 0.28 | 82 | 1013.9 |
| 20260904232600 | 79 | 315 | 1.0 | 4.0 | 0.00 | 0.28 | 0.28 | 82 | 1014.0 |
| 20260904232459 | 79 | 320 | 1.0 | 4.0 | 0.00 | 0.28 | 0.28 | 82 | 1013.9 |
| 20260904232359 | 79 | 5 | 2.0 | 4.0 | 0.00 | 0.28 | 0.28 | 82 | 1013.9 |
| 20260904232300 | 79 | 40 | 0.0 | 4.0 | 0.00 | 0.28 | 0.28 | 82 | 1013.9 |
| 20260904232201 | 79 | 93 | 2.0 | 4.0 | 0.00 | 0.28 | 0.28 | 82 | 1014.0 |
| 20260904232000 | 79 | 355 | 0.0 | 3.0 | 0.00 | 0.28 | 0.28 | 82 | 1013.8 |
| 20260904231859 | 79 | 12 | 0.0 | 3.0 | 0.00 | 0.28 | 0.28 | 82 | 1013.8 |
| 20260904231802 | 79 | 349 | 0.0 | 3.0 | 0.00 | 0.28 | 0.28 | 82 | 1013.7 |
| 20260904231702 | 79 | 360 | 2.0 | 4.0 | 0.00 | 0.28 | 0.28 | 82 | 1013.8 |
| 20260904231601 | 79 | 355 | 0.0 | 4.0 | 0.00 | 0.28 | 0.28 | 82 | 1013.8 |
| 20260904231500 | 79 | 5 | 3.0 | 4.0 | 0.00 | 0.28 | 0.28 | 82 | 1013.8 |
| 20260904231359 | 79 | 34 | 0.0 | 4.0 | 0.00 | 0.28 | 0.28 | 81 | 1013.8 |
| 20260904231259 | 79 | 344 | 3.0 | 4.0 | 0.00 | 0.28 | 0.28 | 82 | 1013.8 |
| 20260904231059 | 79 | 339 | 1.0 | 4.0 | 0.00 | 0.28 | 0.28 | 81 | 1013.8 |
| 20260904231002 | 79 | 341 | 0.0 | 4.0 | 0.00 | 0.28 | 0.28 | 81 | 1013.8 |
| 20260904230801 | 79 | 15 | 0.0 | 6.0 | 0.00 | 0.28 | 0.28 | 81 | 1013.8 |
| 20260904230602 | 79 | 22 | 3.0 | 6.0 | 0.00 | 0.28 | 0.28 | 80 | 1013.7 |
| 20260904230500 | 79 | 355 | 2.0 | 6.0 | 0.00 | 0.28 | 0.28 | 80 | 1013.8 |
| 20260904230401 | 79 | 22 | 2.0 | 6.0 | 0.00 | 0.28 | 0.28 | 80 | 1013.7 |
| 20260904230259 | 79 | 11 | 1.0 | 6.0 | 0.00 | 0.28 | 0.28 | 80 | 1013.7 |
| 20260904230100 | 79 | 332 | 0.0 | 6.0 | 0.00 | 0.28 | 0.28 | 79 | 1013.8 |
| 20260904230000 | 80 | 17 | 3.0 | 4.0 | 0.00 | 0.28 | 0.28 | 80 | 1013.8 |
| 20260904225858 | 80 | 23 | 0.0 | 4.0 | 0.01 | 0.28 | 0.28 | 80 | 1013.8 |
| 20260904225758 | 80 | 5 | 0.0 | 5.0 | 0.01 | 0.28 | 0.28 | 79 | 1013.8 |
| 20260904225659 | 80 | 28 | 0.0 | 8.0 | 0.01 | 0.28 | 0.28 | 80 | 1013.8 |
| 20260904225600 | 80 | 355 | 0.0 | 8.0 | 0.02 | 0.28 | 0.28 | 80 | 1013.8 |
| 20260904225500 | 80 | 263 | 0.0 | 8.0 | 0.02 | 0.28 | 0.28 | 81 | 1013.8 |
| 20260904225359 | 80 | 281 | 0.0 | 8.0 | 0.02 | 0.28 | 0.28 | 81 | 1013.8 |
| 20260904225300 | 80 | 255 | 2.0 | 8.0 | 0.03 | 0.28 | 0.28 | 82 | 1013.8 |
| 20260904225059 | 80 | 325 | 1.0 | 8.0 | 0.04 | 0.28 | 0.28 | 81 | 1013.7 |
| 20260904225001 | 80 | 20 | 1.0 | 8.0 | 0.05 | 0.28 | 0.28 | 81 | 1013.6 |
| 20260904224859 | 80 | 347 | 2.0 | 8.0 | 0.05 | 0.28 | 0.28 | 82 | 1013.5 |
| 20260904224759 | 80 | 355 | 5.0 | 5.0 | 0.06 | 0.28 | 0.28 | 85 | 1013.5 |
| 20260904224659 | 80 | 316 | 2.0 | 4.0 | 0.07 | 0.28 | 0.28 | 86 | 1013.4 |
| 20260904224600 | 80 | 153 | 0.0 | 0.0 | 0.07 | 0.28 | 0.28 | 86 | 1013.4 |
| 20260904224459 | 80 | 153 | 0.0 | 0.0 | 0.08 | 0.28 | 0.28 | 86 | 1013.4 |
| 20260904224359 | 80 | 153 | 0.0 | 0.0 | 0.09 | 0.28 | 0.28 | 86 | 1013.3 |
| 20260904224259 | 80 | 153 | 0.0 | 0.0 | 0.09 | 0.28 | 0.28 | 86 | 1013.4 |
| 20260904224159 | 80 | 153 | 0.0 | 0.0 | 0.10 | 0.28 | 0.28 | 85 | 1013.4 |
| 20260904224058 | 80 | 153 | 0.0 | 0.0 | 0.11 | 0.28 | 0.28 | 85 | 1013.4 |
| 20260904224000 | 80 | 153 | 0.0 | 0.0 | 0.12 | 0.28 | 0.28 | 85 | 1013.3 |
| 20260904223901 | 80 | 153 | 0.0 | 0.0 | 0.13 | 0.28 | 0.28 | 84 | 1013.3 |
| 20260904223659 | 79 | 153 | 0.0 | 0.0 | 0.16 | 0.28 | 0.28 | 84 | 1013.3 |
| 20260904223558 | 79 | 153 | 0.0 | 0.0 | 0.17 | 0.28 | 0.28 | 84 | 1013.3 |
| 20260904223459 | 79 | 153 | 0.0 | 0.0 | 0.19 | 0.28 | 0.28 | 83 | 1013.3 |
| 20260904223401 | 79 | 153 | 0.0 | 0.0 | 0.21 | 0.28 | 0.28 | 84 | 1013.3 |
| 20260904223259 | 79 | 153 | 0.0 | 0.0 | 0.22 | 0.28 | 0.28 | 84 | 1013.3 |
| 20260904223159 | 79 | 153 | 0.0 | 0.0 | 0.24 | 0.28 | 0.28 | 84 | 1013.3 |
| 20260904223058 | 79 | 153 | 0.0 | 0.0 | 0.27 | 0.28 | 0.28 | 84 | 1013.3 |
| 20260904223000 | 79 | 153 | 0.0 | 0.0 | 0.28 | 0.28 | 0.28 | 84 | 1013.3 |
| 20260904222859 | 79 | 153 | 0.0 | 0.0 | 0.28 | 0.28 | 0.28 | 84 | 1013.3 |
| 20260904222759 | 79 | 153 | 0.0 | 0.0 | 0.28 | 0.28 | 0.28 | 85 | 1013.3 |
| 20260904222658 | 79 | 153 | 0.0 | 0.0 | 0.28 | 0.28 | 0.28 | 84 | 1013.3 |
| 20260904222559 | 79 | 153 | 0.0 | 0.0 | 0.28 | 0.28 | 0.28 | 84 | 1013.4 |
| 20260904222459 | 79 | 153 | 0.0 | 1.0 | 0.28 | 0.28 | 0.28 | 84 | 1013.4 |
| 20260904222258 | 79 | 153 | 0.0 | 1.0 | 0.28 | 0.28 | 0.28 | 85 | 1013.4 |
| 20260904222101 | 78 | 153 | 0.0 | 2.0 | 0.28 | 0.28 | 0.28 | 85 | 1013.4 |
| 20260904221959 | 78 | 153 | 0.0 | 2.0 | 0.28 | 0.28 | 0.28 | 84 | 1013.5 |
| 20260904221859 | 78 | 153 | 0.0 | 2.0 | 0.28 | 0.28 | 0.28 | 84 | 1013.5 |
| 20260904221800 | 78 | 153 | 0.0 | 2.0 | 0.28 | 0.28 | 0.28 | 83 | 1013.6 |
| 20260904221701 | 78 | 153 | 0.0 | 2.0 | 0.28 | 0.28 | 0.28 | 81 | 1013.6 |
| 20260904221559 | 78 | 153 | 0.0 | 2.0 | 0.28 | 0.28 | 0.28 | 81 | 1013.8 |
| 20260904221400 | 78 | 153 | 0.0 | 2.0 | 0.28 | 0.28 | 0.28 | 84 | 1013.8 |
| 20260904221300 | 78 | 153 | 1.0 | 2.0 | 0.28 | 0.28 | 0.28 | 85 | 1013.9 |
| 20260904221159 | 78 | 153 | 0.0 | 2.0 | 0.28 | 0.28 | 0.28 | 85 | 1013.9 |
| 20260904221101 | 78 | 153 | 1.0 | 2.0 | 0.28 | 0.28 | 0.28 | 85 | 1013.9 |
| 20260904220959 | 77 | 153 | 1.0 | 3.0 | 0.28 | 0.28 | 0.28 | 85 | 1014.0 |
| 20260904220858 | 77 | 153 | 1.0 | 3.0 | 0.28 | 0.28 | 0.28 | 85 | 1014.0 |
| 20260904220800 | 77 | 153 | 1.0 | 6.0 | 0.28 | 0.28 | 0.28 | 85 | 1014.1 |
| 20260904220659 | 77 | 153 | 2.0 | 6.0 | 0.28 | 0.28 | 0.28 | 86 | 1014.1 |
| 20260904220559 | 77 | 153 | 1.0 | 6.0 | 0.28 | 0.28 | 0.28 | 86 | 1014.2 |
| 20260904220500 | 77 | 153 | 0.0 | 6.0 | 0.28 | 0.28 | 0.28 | 85 | 1014.3 |
| 20260904220358 | 76 | 153 | 2.0 | 6.0 | 0.28 | 0.28 | 0.28 | 83 | 1014.3 |
| 20260904220158 | 76 | 17 | 0.0 | 10.0 | 0.28 | 0.28 | 0.28 | 83 | 1014.4 |
| 20260904215959 | 76 | 343 | 3.0 | 10.0 | 0.28 | 0.28 | 0.28 | 84 | 1014.7 |
| 20260904215859 | 76 | 13 | 3.0 | 10.0 | 0.27 | 0.27 | 0.27 | 85 | 1014.7 |
| 20260904215802 | 76 | 329 | 5.0 | 10.0 | 0.27 | 0.27 | 0.27 | 86 | 1014.9 |
| 20260904215659 | 76 | 5 | 3.0 | 10.0 | 0.27 | 0.27 | 0.27 | 85 | 1014.9 |
| 20260904215500 | 76 | 355 | 3.0 | 10.0 | 0.26 | 0.26 | 0.26 | 85 | 1015.1 |
| 20260904215401 | 76 | 342 | 4.0 | 10.0 | 0.26 | 0.26 | 0.26 | 84 | 1015.1 |
| 20260904215259 | 76 | 69 | 3.0 | 12.0 | 0.25 | 0.25 | 0.25 | 85 | 1015.2 |
| 20260904215059 | 76 | 350 | 3.0 | 14.0 | 0.24 | 0.24 | 0.24 | 86 | 1015.5 |
| 20260904215000 | 76 | 327 | 3.0 | 14.0 | 0.23 | 0.23 | 0.23 | 86 | 1015.7 |
| 20260904214902 | 76 | 46 | 6.0 | 15.0 | 0.23 | 0.23 | 0.23 | 87 | 1015.8 |
| 20260904214801 | 76 | 59 | 6.0 | 18.0 | 0.22 | 0.22 | 0.22 | 87 | 1015.8 |
| 20260904214600 | 76 | 320 | 4.0 | 19.0 | 0.21 | 0.21 | 0.21 | 87 | 1016.5 |
| 20260904214500 | 76 | 49 | 4.0 | 20.0 | 0.20 | 0.20 | 0.20 | 86 | 1016.7 |
| 20260904214400 | 76 | 24 | 4.0 | 20.0 | 0.19 | 0.19 | 0.19 | 85 | 1016.9 |
| 20260904214300 | 76 | 344 | 5.0 | 21.0 | 0.18 | 0.18 | 0.18 | 85 | 1016.9 |
| 20260904214200 | 77 | 344 | 6.0 | 21.0 | 0.18 | 0.18 | 0.18 | 84 | 1016.9 |
| 20260904213959 | 77 | 11 | 13.0 | 21.0 | 0.16 | 0.16 | 0.16 | 82 | 1016.8 |
| 20260904213759 | 79 | 9 | 11.0 | 21.0 | 0.13 | 0.13 | 0.13 | 78 | 1016.4 |
| 20260904213700 | 80 | 16 | 7.0 | 21.0 | 0.12 | 0.12 | 0.12 | 76 | 1016.2 |
| 20260904213601 | 81 | 296 | 10.0 | 21.0 | 0.10 | 0.10 | 0.10 | 74 | 1016.3 |
| 20260904213401 | 83 | 5 | 6.0 | 21.0 | 0.07 | 0.07 | 0.07 | 70 | 1016.8 |
| 20260904213201 | 85 | 355 | 4.0 | 21.0 | 0.04 | 0.04 | 0.04 | 66 | 1016.8 |
| 20260904213100 | 85 | 343 | 9.0 | 21.0 | 0.01 | 0.01 | 0.01 | 64 | 1016.9 |
| 20260904212902 | 86 | 11 | 7.0 | 21.0 | 0.00 | 0.00 | 0.00 | 55 | 1016.6 |
| 20260904212800 | 87 | 321 | 0.0 | 21.0 | 0.00 | 0.00 | 0.00 | 54 | 1016.6 |
| 20260904212659 | 87 | 329 | 3.0 | 21.0 | 0.00 | 0.00 | 0.00 | 52 | 1016.4 |
| 20260904212600 | 88 | 36 | 21.0 | 21.0 | 0.00 | 0.00 | 0.00 | 51 | 1016.2 |
| 20260904212401 | 89 | 325 | 4.0 | 17.0 | 0.00 | 0.00 | 0.00 | 50 | 1016.3 |
| 20260904212201 | 90 | 347 | 8.0 | 17.0 | 0.00 | 0.00 | 0.00 | 49 | 1015.9 |
| 20260904211900 | 92 | 16 | 13.0 | 17.0 | 0.00 | 0.00 | 0.00 | 47 | 1015.3 |
| 20260904211759 | 93 | 309 | 17.0 | 17.0 | 0.00 | 0.00 | 0.00 | 47 | 1015.1 |
| 20260904211700 | 94 | 346 | 5.0 | 14.0 | 0.00 | 0.00 | 0.00 | 45 | 1015.0 |
| 20260904211600 | 95 | 9 | 7.0 | 14.0 | 0.00 | 0.00 | 0.00 | 45 | 1014.9 |
| 20260904211401 | 96 | 333 | 6.0 | 14.0 | 0.00 | 0.00 | 0.00 | 44 | 1014.8 |
| 20260904211301 | 97 | 345 | 5.0 | 14.0 | 0.00 | 0.00 | 0.00 | 44 | 1014.5 |
| 20260904211201 | 97 | 346 | 9.0 | 14.0 | 0.00 | 0.00 | 0.00 | 43 | 1014.4 |
| 20260904211100 | 98 | 42 | 10.0 | 10.0 | 0.00 | 0.00 | 0.00 | 43 | 1014.3 |
| 20260904211000 | 98 | 43 | 4.0 | 10.0 | 0.00 | 0.00 | 0.00 | 45 | 1014.4 |
| 20260904210901 | 98 | 338 | 3.0 | 9.0 | 0.00 | 0.00 | 0.00 | 46 | 1014.4 |
| 20260904210759 | 98 | 344 | 5.0 | 9.0 | 0.00 | 0.00 | 0.00 | 46 | 1014.3 |
| 20260904210659 | 98 | 28 | 4.0 | 4.0 | 0.00 | 0.00 | 0.00 | 45 | 1014.2 |
| 20260904210601 | 99 | 344 | 3.0 | 4.0 | 0.00 | 0.00 | 0.00 | 46 | 1014.2 |
| 20260904210459 | 99 | 286 | 0.0 | 4.0 | 0.00 | 0.00 | 0.00 | 46 | 1014.1 |
| 20260904210401 | 99 | 192 | 1.0 | 4.0 | 0.00 | 0.00 | 0.00 | 45 | 1014.1 |
| 20260904210301 | 99 | 143 | 0.0 | 4.0 | 0.00 | 0.00 | 0.00 | 46 | 1014.0 |
| 20260904210059 | 99 | 292 | 0.0 | 4.0 | 0.00 | 0.00 | 0.00 | 47 | 1014.0 |
| 20260904210002 | 99 | 286 | 0.0 | 4.0 | 0.00 | 0.00 | 0.00 | 46 | 1014.0 |
| 20260904205859 | 99 | 171 | 0.0 | 4.0 | 0.00 | 0.00 | 0.00 | 46 | 1014.0 |
| 20260904205659 | 98 | 26 | 0.0 | 2.0 | 0.00 | 0.00 | 0.00 | 47 | 1014.0 |
| 20260904205602 | 98 | 300 | 0.0 | 2.0 | 0.00 | 0.00 | 0.00 | 48 | 1014.0 |
| 20260904205504 | 98 | 121 | 0.0 | 5.0 | 0.00 | 0.00 | 0.00 | 48 | 1014.0 |
| 20260904205401 | 98 | 179 | 0.0 | 5.0 | 0.00 | 0.00 | 0.00 | 49 | 1014.0 |
| 20260904205300 | 98 | 182 | 0.0 | 5.0 | 0.00 | 0.00 | 0.00 | 49 | 1014.0 |
| 20260904205203 | 98 | 210 | 1.0 | 5.0 | 0.00 | 0.00 | 0.00 | 47 | 1014.1 |
| 20260904205100 | 98 | 240 | 0.0 | 5.0 | 0.00 | 0.00 | 0.00 | 47 | 1014.1 |
| 20260904204959 | 98 | 225 | 0.0 | 5.0 | 0.00 | 0.00 | 0.00 | 49 | 1014.3 |
| 20260904204859 | 98 | 217 | 0.0 | 5.0 | 0.00 | 0.00 | 0.00 | 48 | 1014.2 |
| 20260904204800 | 98 | 283 | 0.0 | 5.0 | 0.00 | 0.00 | 0.00 | 48 | 1014.2 |
| 20260904204600 | 98 | 202 | 1.0 | 5.0 | 0.00 | 0.00 | 0.00 | 47 | 1014.3 |
| 20260904204500 | 98 | 221 | 0.0 | 4.0 | 0.00 | 0.00 | 0.00 | 46 | 1014.3 |
| 20260904204400 | 98 | 10 | 2.0 | 5.0 | 0.00 | 0.00 | 0.00 | 47 | 1014.3 |
| 20260904204259 | 98 | 152 | 1.0 | 5.0 | 0.00 | 0.00 | 0.00 | 48 | 1014.3 |
| 20260904204202 | 98 | 182 | 0.0 | 4.0 | 0.00 | 0.00 | 0.00 | 47 | 1014.3 |
| 20260904204100 | 98 | 342 | 0.0 | 4.0 | 0.00 | 0.00 | 0.00 | 47 | 1014.2 |
| 20260904204000 | 99 | 298 | 1.0 | 4.0 | 0.00 | 0.00 | 0.00 | 47 | 1014.2 |
| 20260904203900 | 99 | 348 | 0.0 | 4.0 | 0.00 | 0.00 | 0.00 | 48 | 1014.3 |
| 20260904203801 | 99 | 154 | 0.0 | 4.0 | 0.00 | 0.00 | 0.00 | 48 | 1014.1 |
| 20260904203659 | 99 | 186 | 0.0 | 5.0 | 0.00 | 0.00 | 0.00 | 47 | 1014.1 |
| 20260904203600 | 99 | 286 | 2.0 | 5.0 | 0.00 | 0.00 | 0.00 | 47 | 1014.0 |
| 20260904203501 | 99 | 154 | 0.0 | 5.0 | 0.00 | 0.00 | 0.00 | 46 | 1014.0 |
| 20260904203359 | 99 | 127 | 1.0 | 5.0 | 0.00 | 0.00 | 0.00 | 47 | 1014.1 |
| 20260904203300 | 99 | 83 | 0.0 | 5.0 | 0.00 | 0.00 | 0.00 | 46 | 1014.1 |
| 20260904203102 | 99 | 325 | 2.0 | 5.0 | 0.00 | 0.00 | 0.00 | 48 | 1014.1 |
| 20260904203000 | 99 | 199 | 1.0 | 5.0 | 0.00 | 0.00 | 0.00 | 47 | 1014.2 |
| 20260904202901 | 99 | 281 | 0.0 | 5.0 | 0.00 | 0.00 | 0.00 | 46 | 1014.2 |
| 20260904202802 | 99 | 154 | 3.0 | 4.0 | 0.00 | 0.00 | 0.00 | 46 | 1014.2 |
| 20260904202700 | 99 | 158 | 0.0 | 3.0 | 0.00 | 0.00 | 0.00 | 47 | 1014.2 |
| 20260904202600 | 99 | 360 | 0.0 | 6.0 | 0.00 | 0.00 | 0.00 | 48 | 1014.3 |
| 20260904202500 | 99 | 344 | 1.0 | 6.0 | 0.00 | 0.00 | 0.00 | 47 | 1014.3 |
| 20260904202359 | 99 | 166 | 3.0 | 6.0 | 0.00 | 0.00 | 0.00 | 48 | 1014.3 |
| 20260904202305 | 99 | 350 | 0.0 | 6.0 | 0.00 | 0.00 | 0.00 | 47 | 1014.3 |
| 20260904202201 | 99 | 9 | 1.0 | 6.0 | 0.00 | 0.00 | 0.00 | 47 | 1014.3 |
| 20260904202000 | 99 | 348 | 1.0 | 6.0 | 0.00 | 0.00 | 0.00 | 47 | 1014.3 |
| 20260904201859 | 99 | 194 | 1.0 | 6.0 | 0.00 | 0.00 | 0.00 | 47 | 1014.4 |
| 20260904201800 | 99 | 184 | 0.0 | 6.0 | 0.00 | 0.00 | 0.00 | 47 | 1014.3 |
| 20260904201702 | 99 | 271 | 0.0 | 6.0 | 0.00 | 0.00 | 0.00 | 47 | 1014.3 |
| 20260904201459 | 99 | 302 | 2.0 | 2.0 | 0.00 | 0.00 | 0.00 | 49 | 1014.4 |
| 20260904201401 | 99 | 315 | 0.0 | 2.0 | 0.00 | 0.00 | 0.00 | 48 | 1014.4 |
| 20260904201301 | 99 | 159 | 1.0 | 2.0 | 0.00 | 0.00 | 0.00 | 48 | 1014.4 |
| 20260904201159 | 99 | 190 | 0.0 | 2.0 | 0.00 | 0.00 | 0.00 | 48 | 1014.5 |
| 20260904201059 | 99 | 210 | 0.0 | 2.0 | 0.00 | 0.00 | 0.00 | 49 | 1014.4 |
| 20260904201000 | 99 | 331 | 0.0 | 2.0 | 0.00 | 0.00 | 0.00 | 48 | 1014.4 |
| 20260904200900 | 99 | 263 | 0.0 | 3.0 | 0.00 | 0.00 | 0.00 | 48 | 1014.5 |
| 20260904200801 | 99 | 311 | 0.0 | 3.0 | 0.00 | 0.00 | 0.00 | 48 | 1014.5 |
| 20260904200700 | 99 | 298 | 0.0 | 3.0 | 0.00 | 0.00 | 0.00 | 48 | 1014.5 |
| 20260904200400 | 99 | 312 | 0.0 | 3.0 | 0.00 | 0.00 | 0.00 | 47 | 1014.5 |
| 20260904200200 | 99 | 153 | 0.0 | 3.0 | 0.00 | 0.00 | 0.00 | 48 | 1014.5 |
| 20260904200100 | 98 | 355 | 1.0 | 3.0 | 0.00 | 0.00 | 0.00 | 48 | 1014.6 |
| 20260904195900 | 98 | 218 | 0.0 | 3.0 | 0.00 | 0.00 | 0.00 | 50 | 1014.5 |
| 20260904195801 | 98 | 272 | 0.0 | 3.0 | 0.00 | 0.00 | 0.00 | 50 | 1014.5 |
| 20260904195700 | 98 | 133 | 0.0 | 3.0 | 0.00 | 0.00 | 0.00 | 49 | 1014.5 |
| 20260904195602 | 98 | 317 | 0.0 | 3.0 | 0.00 | 0.00 | 0.00 | 48 | 1014.5 |
| 20260904195502 | 98 | 342 | 0.0 | 5.0 | 0.00 | 0.00 | 0.00 | 50 | 1014.6 |
| 20260904195359 | 98 | 355 | 1.0 | 5.0 | 0.00 | 0.00 | 0.00 | 50 | 1014.6 |
| 20260904195300 | 97 | 355 | 2.0 | 5.0 | 0.00 | 0.00 | 0.00 | 49 | 1014.5 |
| 20260904195201 | 97 | 345 | 0.0 | 5.0 | 0.00 | 0.00 | 0.00 | 50 | 1014.5 |
| 20260904195100 | 97 | 331 | 0.0 | 6.0 | 0.00 | 0.00 | 0.00 | 49 | 1014.6 |
| 20260904194959 | 97 | 10 | 2.0 | 6.0 | 0.00 | 0.00 | 0.00 | 50 | 1014.6 |
| 20260904194801 | 97 | 339 | 1.0 | 6.0 | 0.00 | 0.00 | 0.00 | 49 | 1014.6 |
| 20260904194559 | 97 | 172 | 2.0 | 6.0 | 0.00 | 0.00 | 0.00 | 48 | 1014.5 |
| 20260904194401 | 97 | 191 | 2.0 | 6.0 | 0.00 | 0.00 | 0.00 | 48 | 1014.5 |
| 20260904194300 | 97 | 196 | 0.0 | 6.0 | 0.00 | 0.00 | 0.00 | 47 | 1014.5 |
| 20260904194201 | 97 | 346 | 0.0 | 6.0 | 0.00 | 0.00 | 0.00 | 47 | 1014.6 |
| 20260904194100 | 97 | 225 | 4.0 | 6.0 | 0.00 | 0.00 | 0.00 | 46 | 1014.6 |
| 20260904194001 | 97 | 293 | 1.0 | 6.0 | 0.00 | 0.00 | 0.00 | 47 | 1014.6 |
| 20260904193859 | 97 | 321 | 2.0 | 6.0 | 0.00 | 0.00 | 0.00 | 47 | 1014.5 |
| 20260904193802 | 97 | 147 | 5.0 | 6.0 | 0.00 | 0.00 | 0.00 | 48 | 1014.5 |
| 20260904193700 | 97 | 194 | 2.0 | 6.0 | 0.00 | 0.00 | 0.00 | 48 | 1014.5 |
| 20260904193559 | 97 | 130 | 0.0 | 6.0 | 0.00 | 0.00 | 0.00 | 47 | 1014.5 |
| 20260904193501 | 97 | 290 | 0.0 | 6.0 | 0.00 | 0.00 | 0.00 | 47 | 1014.5 |
| 20260904193400 | 97 | 330 | 4.0 | 6.0 | 0.00 | 0.00 | 0.00 | 49 | 1014.5 |
| 20260904193200 | 97 | 333 | 0.0 | 6.0 | 0.00 | 0.00 | 0.00 | 48 | 1014.5 |
| 20260904193101 | 97 | 313 | 3.0 | 6.0 | 0.00 | 0.00 | 0.00 | 49 | 1014.5 |
| 20260904192859 | 97 | 348 | 0.0 | 5.0 | 0.00 | 0.00 | 0.00 | 50 | 1014.6 |
| 20260904192803 | 97 | 198 | 0.0 | 7.0 | 0.00 | 0.00 | 0.00 | 49 | 1014.6 |
| 20260904192700 | 97 | 179 | 1.0 | 7.0 | 0.00 | 0.00 | 0.00 | 49 | 1014.6 |
| 20260904192501 | 97 | 199 | 2.0 | 7.0 | 0.00 | 0.00 | 0.00 | 49 | 1014.6 |
| 20260904192401 | 97 | 355 | 2.0 | 7.0 | 0.00 | 0.00 | 0.00 | 49 | 1014.6 |
| 20260904192201 | 97 | 213 | 3.0 | 7.0 | 0.00 | 0.00 | 0.00 | 49 | 1014.6 |
| 20260904192100 | 97 | 154 | 3.0 | 7.0 | 0.00 | 0.00 | 0.00 | 49 | 1014.6 |
| 20260904192001 | 97 | 294 | 2.0 | 7.0 | 0.00 | 0.00 | 0.00 | 49 | 1014.6 |
| 20260904191900 | 97 | 161 | 6.0 | 7.0 | 0.00 | 0.00 | 0.00 | 49 | 1014.7 |
| 20260904191702 | 97 | 161 | 1.0 | 7.0 | 0.00 | 0.00 | 0.00 | 49 | 1014.6 |
| 20260904191559 | 97 | 197 | 0.0 | 7.0 | 0.00 | 0.00 | 0.00 | 49 | 1014.6 |
| 20260904191400 | 97 | 190 | 3.0 | 8.0 | 0.00 | 0.00 | 0.00 | 49 | 1014.7 |
| 20260904191300 | 97 | 247 | 5.0 | 8.0 | 0.00 | 0.00 | 0.00 | 49 | 1014.7 |
| 20260904191103 | 97 | 155 | 3.0 | 8.0 | 0.00 | 0.00 | 0.00 | 50 | 1014.6 |
| 20260904191001 | 97 | 128 | 1.0 | 8.0 | 0.00 | 0.00 | 0.00 | 49 | 1014.7 |
| 20260904190703 | 97 | 275 | 2.0 | 8.0 | 0.00 | 0.00 | 0.00 | 50 | 1014.7 |
| 20260904190501 | 97 | 179 | 2.0 | 8.0 | 0.00 | 0.00 | 0.00 | 49 | 1014.7 |
| 20260904190400 | 97 | 213 | 3.0 | 8.0 | 0.00 | 0.00 | 0.00 | 50 | 1014.8 |
| 20260904190200 | 97 | 207 | 3.0 | 8.0 | 0.00 | 0.00 | 0.00 | 49 | 1014.9 |
| 20260904190001 | 97 | 161 | 5.0 | 8.0 | 0.00 | 0.00 | 0.00 | 49 | 1014.8 |
| 20260904185659 | 97 | 332 | 0.0 | 12.0 | 0.00 | 0.00 | 0.00 | 50 | 1014.8 |
| 20260904185600 | 97 | 332 | 0.0 | 12.0 | 0.00 | 0.00 | 0.00 | 50 | 1014.9 |
| 20260904185401 | 97 | 70 | 0.0 | 12.0 | 0.00 | 0.00 | 0.00 | 49 | 1014.9 |
| 20260904185302 | 98 | 157 | 2.0 | 12.0 | 0.00 | 0.00 | 0.00 | 49 | 1014.9 |
| 20260904185101 | 98 | 266 | 2.0 | 12.0 | 0.00 | 0.00 | 0.00 | 47 | 1014.9 |
| 20260904185002 | 98 | 233 | 2.0 | 12.0 | 0.00 | 0.00 | 0.00 | 47 | 1015.0 |
| 20260904184901 | 98 | 5 | 0.0 | 8.0 | 0.00 | 0.00 | 0.00 | 47 | 1015.0 |
| 20260904184801 | 98 | 171 | 2.0 | 8.0 | 0.00 | 0.00 | 0.00 | 48 | 1015.0 |
| 20260904184700 | 98 | 219 | 2.0 | 8.0 | 0.00 | 0.00 | 0.00 | 47 | 1015.0 |
| 20260904184600 | 98 | 162 | 0.0 | 8.0 | 0.00 | 0.00 | 0.00 | 48 | 1014.9 |
| 20260904184500 | 98 | 5 | 2.0 | 8.0 | 0.00 | 0.00 | 0.00 | 48 | 1015.0 |
| 20260904184302 | 98 | 342 | 0.0 | 4.0 | 0.00 | 0.00 | 0.00 | 49 | 1015.0 |
| 20260904184200 | 98 | 40 | 2.0 | 6.0 | 0.00 | 0.00 | 0.00 | 48 | 1015.1 |
| 20260904184100 | 98 | 143 | 2.0 | 6.0 | 0.00 | 0.00 | 0.00 | 49 | 1015.1 |
| 20260904184000 | 98 | 42 | 0.0 | 6.0 | 0.00 | 0.00 | 0.00 | 49 | 1015.0 |
| 20260904183901 | 98 | 9 | 0.0 | 6.0 | 0.00 | 0.00 | 0.00 | 49 | 1015.1 |
| 20260904183801 | 98 | 5 | 0.0 | 6.0 | 0.00 | 0.00 | 0.00 | 49 | 1015.1 |
| 20260904183701 | 98 | 289 | 0.0 | 8.0 | 0.00 | 0.00 | 0.00 | 50 | 1015.2 |
| 20260904183600 | 98 | 10 | 0.0 | 9.0 | 0.00 | 0.00 | 0.00 | 50 | 1015.2 |
| 20260904183500 | 98 | 340 | 1.0 | 9.0 | 0.00 | 0.00 | 0.00 | 49 | 1015.1 |
| 20260904183400 | 98 | 321 | 5.0 | 9.0 | 0.00 | 0.00 | 0.00 | 50 | 1015.1 |
| 20260904183300 | 98 | 179 | 0.0 | 9.0 | 0.00 | 0.00 | 0.00 | 50 | 1015.2 |
| 20260904183159 | 98 | 200 | 3.0 | 9.0 | 0.00 | 0.00 | 0.00 | 51 | 1015.2 |
| 20260904183101 | 97 | 178 | 0.0 | 9.0 | 0.00 | 0.00 | 0.00 | 50 | 1015.2 |
| 20260904183000 | 97 | 331 | 2.0 | 9.0 | 0.00 | 0.00 | 0.00 | 50 | 1015.3 |
| 20260904182902 | 97 | 330 | 2.0 | 11.0 | 0.00 | 0.00 | 0.00 | 49 | 1015.3 |
| 20260904182700 | 97 | 195 | 1.0 | 11.0 | 0.00 | 0.00 | 0.00 | 49 | 1015.3 |
| 20260904182600 | 97 | 308 | 2.0 | 11.0 | 0.00 | 0.00 | 0.00 | 48 | 1015.3 |
| 20260904182501 | 98 | 256 | 1.0 | 11.0 | 0.00 | 0.00 | 0.00 | 48 | 1015.3 |
| 20260904182359 | 98 | 304 | 4.0 | 11.0 | 0.00 | 0.00 | 0.00 | 49 | 1015.3 |
| 20260904182259 | 98 | 338 | 2.0 | 11.0 | 0.00 | 0.00 | 0.00 | 48 | 1015.4 |
| 20260904182201 | 98 | 294 | 3.0 | 11.0 | 0.00 | 0.00 | 0.00 | 48 | 1015.4 |
| 20260904181900 | 98 | 166 | 4.0 | 9.0 | 0.00 | 0.00 | 0.00 | 48 | 1015.4 |
| 20260904181800 | 98 | 245 | 1.0 | 9.0 | 0.00 | 0.00 | 0.00 | 49 | 1015.5 |
| 20260904181659 | 98 | 107 | 0.0 | 9.0 | 0.00 | 0.00 | 0.00 | 49 | 1015.5 |
| 20260904181600 | 98 | 146 | 1.0 | 9.0 | 0.00 | 0.00 | 0.00 | 48 | 1015.5 |
| 20260904181500 | 98 | 88 | 0.0 | 9.0 | 0.00 | 0.00 | 0.00 | 50 | 1015.5 |
| 20260904181400 | 98 | 344 | 1.0 | 9.0 | 0.00 | 0.00 | 0.00 | 49 | 1015.5 |
| 20260904181301 | 98 | 60 | 1.0 | 9.0 | 0.00 | 0.00 | 0.00 | 48 | 1015.6 |
| 20260904181159 | 98 | 284 | 4.0 | 5.0 | 0.00 | 0.00 | 0.00 | 49 | 1015.4 |
| 20260904181101 | 98 | 36 | 2.0 | 5.0 | 0.00 | 0.00 | 0.00 | 50 | 1015.4 |
| 20260904180959 | 98 | 15 | 0.0 | 5.0 | 0.00 | 0.00 | 0.00 | 50 | 1015.6 |
| 20260904180901 | 98 | 349 | 1.0 | 5.0 | 0.00 | 0.00 | 0.00 | 50 | 1015.7 |
| 20260904180801 | 98 | 326 | 3.0 | 5.0 | 0.00 | 0.00 | 0.00 | 50 | 1015.7 |
| 20260904180659 | 98 | 350 | 0.0 | 5.0 | 0.00 | 0.00 | 0.00 | 50 | 1015.7 |
| 20260904180602 | 98 | 332 | 1.0 | 5.0 | 0.00 | 0.00 | 0.00 | 51 | 1015.7 |
| 20260904180500 | 98 | 338 | 0.0 | 5.0 | 0.00 | 0.00 | 0.00 | 49 | 1015.8 |
| 20260904180400 | 98 | 175 | 1.0 | 5.0 | 0.00 | 0.00 | 0.00 | 48 | 1015.8 |
| 20260904180301 | 98 | 173 | 1.0 | 5.0 | 0.00 | 0.00 | 0.00 | 50 | 1015.8 |
| 20260904180159 | 98 | 9 | 2.0 | 5.0 | 0.00 | 0.00 | 0.00 | 50 | 1015.9 |
| 20260904180100 | 98 | 203 | 0.0 | 5.0 | 0.00 | 0.00 | 0.00 | 51 | 1015.9 |
| 20260904175959 | 98 | 58 | 0.0 | 5.0 | 0.00 | 0.00 | 0.00 | 50 | 1016.0 |
| 20260904175902 | 98 | 326 | 0.0 | 5.0 | 0.00 | 0.00 | 0.00 | 51 | 1015.9 |
| 20260904175658 | 98 | 106 | 0.0 | 4.0 | 0.00 | 0.00 | 0.00 | 50 | 1016.0 |
| 20260904175559 | 97 | 119 | 0.0 | 4.0 | 0.00 | 0.00 | 0.00 | 49 | 1016.1 |
| 20260904175458 | 97 | 315 | 0.0 | 4.0 | 0.00 | 0.00 | 0.00 | 51 | 1016.0 |
| 20260904175359 | 97 | 118 | 1.0 | 4.0 | 0.00 | 0.00 | 0.00 | 51 | 1016.1 |
| 20260904175159 | 97 | 127 | 1.0 | 7.0 | 0.00 | 0.00 | 0.00 | 50 | 1016.0 |
| 20260904175058 | 97 | 186 | 3.0 | 7.0 | 0.00 | 0.00 | 0.00 | 50 | 1016.1 |
| 20260904174959 | 97 | 178 | 2.0 | 10.0 | 0.00 | 0.00 | 0.00 | 51 | 1016.1 |
| 20260904174759 | 97 | 28 | 1.0 | 10.0 | 0.00 | 0.00 | 0.00 | 51 | 1016.1 |
| 20260904174659 | 97 | 85 | 1.0 | 10.0 | 0.00 | 0.00 | 0.00 | 52 | 1016.1 |
| 20260904174558 | 97 | 319 | 0.0 | 10.0 | 0.00 | 0.00 | 0.00 | 50 | 1016.0 |
| 20260904174400 | 97 | 181 | 0.0 | 10.0 | 0.00 | 0.00 | 0.00 | 50 | 1016.1 |
| 20260904174258 | 97 | 285 | 0.0 | 10.0 | 0.00 | 0.00 | 0.00 | 49 | 1016.2 |
| 20260904174159 | 97 | 195 | 4.0 | 10.0 | 0.00 | 0.00 | 0.00 | 48 | 1016.2 |
| 20260904174101 | 97 | 299 | 10.0 | 10.0 | 0.00 | 0.00 | 0.00 | 48 | 1016.3 |
| 20260904173859 | 97 | 153 | 3.0 | 7.0 | 0.00 | 0.00 | 0.00 | 49 | 1016.2 |
| 20260904173801 | 98 | 295 | 2.0 | 7.0 | 0.00 | 0.00 | 0.00 | 48 | 1016.3 |
| 20260904173600 | 97 | 334 | 0.0 | 5.0 | 0.00 | 0.00 | 0.00 | 48 | 1016.3 |
| 20260904173458 | 97 | 329 | 3.0 | 5.0 | 0.00 | 0.00 | 0.00 | 50 | 1016.3 |
| 20260904173358 | 97 | 284 | 4.0 | 5.0 | 0.00 | 0.00 | 0.00 | 50 | 1016.3 |
| 20260904173259 | 97 | 313 | 3.0 | 5.0 | 0.00 | 0.00 | 0.00 | 51 | 1016.4 |
| 20260904173159 | 97 | 355 | 1.0 | 4.0 | 0.00 | 0.00 | 0.00 | 50 | 1016.4 |
| 20260904173059 | 97 | 349 | 0.0 | 4.0 | 0.00 | 0.00 | 0.00 | 49 | 1016.4 |